                ,  0.300,  0.400,  0.500,  0.600,  0.700,  0.800,  0.900,  1.000,  1.100,  1.200,  1.300,  1.400,  1.500,  1.600,  1.700,  1.800,  1.900,  2.000,  2.100,  2.200,  2.300,  2.400,  2.500,  2.600,  2.700,  2.800,  2.900,  3.000,  3.100,  3.200,  3.300,  3.400,  3.500,  3.600,  3.700,  3.800,  3.900,  4.000,  4.100,  4.200,  4.300,  4.400,  4.500,  4.600,  4.700,  4.800,  4.900,  5.000,  5.100,  5.200,  5.300,  5.400,  5.500,  5.600,  5.700,  5.800,  5.900,  6.000
2000/12/06 00:00,   -0.0,    0.2,   -0.1,    0.1,    0.0,   -0.1,    0.1,    0.1,    0.1,   -0.2,   -0.2,   -0.0,    0.1,  999.0,    0.0,  999.0,    0.1,    0.0,  999.0,  999.0,  999.0,  999.0,  999.0,  999.0,  999.0,  999.0,  999.0,  999.0,  999.0,  999.0,  999.0,  999.0,  999.0,  999.0,  999.0,  999.0,  999.0,  999.0,  999.0,  999.0,  999.0,  999.0,  999.0,  999.0,  999.0,  999.0,  999.0,  999.0,  999.0,  999.0,  999.0,  999.0,  999.0,  999.0,  999.0,  999.0,  999.0,  999.0
2000/12/06 00:10,    0.0,    0.1,    0.0,    0.1,   -0.0,   -0.1,    0.4,    0.1,    0.0,   -0.1,   -0.0,   -0.0,    0.1,  999.0,    0.1,   -0.0,  999.0,  999.0,  999.0,  999.0,  999.0,    0.0,  999.0,  999.0,  999.0,  999.0,  999.0,  999.0,  999.0,  999.0,  999.0,  999.0,  999.0,  999.0,   -5.6,  999.0,  999.0,  999.0,  999.0,   -5.5,  999.0,   -5.6,  999.0,   -5.6,   -5.5,  999.0,   -5.6,  999.0,   -5.5,   -5.5,   -5.5,  999.0,   -5.6,   -5.6,   -5.4,   -5.5,   -5.5,   -5.6
2000/12/06 00:20,   -0.2,    0.1,    0.1,   -0.1,   -0.2,   -0.0,    0.1,    0.2,    0.2,    0.1,    0.2,    0.1,    0.7,  999.0,    0.1,   -0.0,  999.0,    0.0,  999.0,    0.1,  999.0,   -1.6,   -1.5,  999.0,  999.0,  999.0,  999.0,  999.0,  999.0,  999.0,  999.0,   -5.5,   -5.6,   -5.6,   -5.5,   -5.4,   -5.6,   -5.3,   -5.5,   -5.6,   -5.5,   -5.4,   -5.4,   -5.4,   -5.5,   -5.6,   -5.5,   -5.5,   -5.5,  999.0,   -5.5,   -5.5,   -5.5,   -5.4,   -5.5,   -5.4,  999.0,   -5.5
2000/12/06 00:30,    0.0,    0.1,    0.1,   -0.1,   -0.2,   -0.1,    0.1,    0.1,    0.2,   -0.2,    0.1,   -0.0,  999.0,  999.0,    0.4,    0.0,  999.0,   -0.1,    0.1,  999.0,  999.0,  999.0,  999.0,  999.0,   -3.3,  999.0,  999.0,  999.0,  999.0,  999.0,  999.0,   -5.5,  999.0,   -5.4,   -5.4,   -5.5,   -5.5,   -5.4,   -5.5,   -5.5,   -5.5,   -5.5,   -5.5,   -5.5,   -5.4,   -5.6,   -5.7,   -5.5,   -5.5,   -5.5,   -5.6,   -5.4,   -5.5,   -5.5,   -5.5,   -5.5,   -5.5,   -5.5
2000/12/06 00:40,    0.0,    0.0,   -0.2,   -0.2,   -0.1,   -0.0,    0.1,    0.0,    0.1,    0.2,   -0.0,    0.0,    0.1,  999.0,    0.2,   -0.0,    0.2,    0.0,  999.0,  999.0,    0.2,    0.1,  999.0,  999.0,  999.0,  999.0,  999.0,  999.0,  999.0,  999.0,   -5.5,  999.0,  999.0,  999.0,  999.0,   -5.5,   -5.5,  999.0,  999.0,   -5.6,   -5.5,   -5.5,   -5.5,   -5.5,   -5.5,   -5.4,  999.0,  999.0,  999.0,   -5.4,   -5.6,   -5.5,   -5.5,  999.0,   -5.4,   -5.5,   -5.4,  999.0
2000/12/06 00:50,   -0.0,    0.0,   -0.1,   -0.2,   -0.2,   -0.0,    0.0,    0.1,    0.1,    0.1,   -0.1,   -0.0,   -0.1,  999.0,    0.1,    0.1,    0.1,  999.0,  999.0,  999.0,  999.0,   -2.1,  999.0,  999.0,  999.0,  999.0,  999.0,  999.0,  999.0,   -5.6,  999.0,   -5.5,   -5.4,   -5.5,   -5.6,   -5.6,   -5.6,   -5.5,   -5.5,   -5.5,   -5.5,   -5.5,   -5.4,   -5.5,   -5.4,   -5.5,   -5.5,   -5.5,   -5.7,   -5.5,   -5.5,  999.0,   -5.5,  999.0,   -5.6,   -5.7,   -5.5,   -5.5
2000/12/06 01:00,    0.1,    0.2,   -0.1,   -0.2,   -0.1,   -0.1,    0.0,    0.0,   -0.0,    0.0,   -0.1,   -0.0,   -0.1,  999.0,    0.1,    0.4,   -0.1,  999.0,  999.0,  999.0,  999.0,   -0.0,  999.0,  999.0,  999.0,  999.0,  999.0,  999.0,  999.0,  999.0,  999.0,  999.0,   -5.4,   -5.3,   -5.6,   -5.6,   -5.5,   -5.5,   -5.5,   -5.5,   -5.6,   -5.5,   -5.5,   -5.5,   -5.4,   -5.5,   -5.6,   -5.5,   -5.5,   -5.5,   -5.6,   -5.5,   -5.6,   -5.5,   -5.6,   -5.5,   -5.4,   -5.5
2000/12/06 01:10,   -0.0,    0.1,   -0.1,   -0.1,   -0.2,   -0.1,    0.3,    0.1,    0.2,    0.1,    0.0,    0.0,    0.2,    0.5,    0.3,   -0.5,  999.0,   -0.5,  999.0,  999.0,  999.0,  999.0,  999.0,  999.0,  999.0,  999.0,  999.0,  999.0,  999.0,  999.0,   -5.3,   -5.4,   -5.7,   -5.5,   -5.4,   -5.7,   -5.4,   -5.5,   -5.6,   -5.5,  999.0,   -5.7,  999.0,   -5.5,   -5.5,   -5.6,   -5.5,   -5.6,   -5.6,   -5.7,   -5.4,  999.0,   -5.5,   -5.5,   -5.6,  999.0,   -5.5,   -5.7
2000/12/06 01:20,   -0.2,   -0.2,    0.0,    0.2,   -0.0,   -0.0,   -0.1,   -0.1,   -0.1,   -0.1,   -0.2,   -0.0,    0.1,    0.5,    0.1,    0.2,  999.0,    0.0,  999.0,  999.0,  999.0,  999.0,  999.0,  999.0,  999.0,  999.0,  999.0,  999.0,   -4.2,  999.0,   -5.4,   -5.5,  999.0,   -5.5,   -5.4,   -5.5,   -5.6,   -5.5,   -5.5,  999.0,   -5.5,   -5.5,  999.0,   -5.5,   -5.5,   -5.6,   -5.6,   -5.6,   -5.7,   -5.6,   -5.4,   -5.5,   -5.5,   -5.6,  999.0,   -5.5,   -5.4,  999.0
2000/12/06 01:30,   -0.1,   -0.2,    0.1,   -0.2,   -0.2,   -0.0,    0.0,    0.1,    0.0,   -0.0,   -0.0,    0.0,    0.2,   -0.3,    0.1,   -0.1,   -0.1,   -0.0,   -0.2,  999.0,  999.0,  999.0,  999.0,  999.0,  999.0,  999.0,  999.0,   -5.5,  999.0,  999.0,   -5.4,   -5.4,   -5.5,   -5.5,   -5.5,   -5.6,   -5.5,   -5.5,   -5.5,   -5.5,   -5.5,   -5.5,   -5.5,   -5.5,   -5.5,  999.0,  999.0,   -5.5,   -5.6,   -5.5,   -5.4,   -5.6,   -5.4,   -5.6,   -5.6,   -5.4,   -5.6,   -5.4
2000/12/06 01:40,    0.2,    0.2,   -0.1,   -0.2,   -0.0,    0.0,    0.0,    0.0,    0.1,   -0.0,    0.4,    0.0,    0.2,  999.0,    0.0,   -0.0,   -0.0,   -0.1,    0.2,  999.0,  999.0,  999.0,  999.0,  999.0,  999.0,  999.0,  999.0,  999.0,  999.0,   -5.6,   -5.6,   -5.5,   -5.5,   -5.4,   -5.6,   -5.5,   -5.5,   -5.4,   -5.5,   -5.3,   -5.5,   -5.5,   -5.5,   -5.5,   -5.6,   -5.6,   -5.6,   -5.5,   -5.4,   -5.5,   -5.5,  999.0,   -5.5,   -5.6,   -5.5,  999.0,   -5.6,   -5.5
2000/12/06 01:50,   -0.1,   -0.3,    0.0,   -0.1,   -0.1,   -0.1,    0.0,    0.0,    0.1,   -0.0,    0.1,    0.1,    0.6,  999.0,   -0.1,   -1.1,   -2.4,   -0.1,  999.0,  999.0,  999.0,  999.0,  999.0,  999.0,  999.0,  999.0,  999.0,  999.0,   -5.5,  999.0,  999.0,   -5.5,   -5.6,   -5.5,   -5.4,   -5.3,   -5.5,   -5.6,   -5.5,   -5.5,   -5.5,   -5.5,  999.0,   -5.5,   -5.5,   -5.5,  999.0,   -5.6,   -5.5,   -5.5,   -5.5,   -5.5,   -5.5,   -5.6,  999.0,   -5.6,   -5.6,   -5.5
2000/12/06 02:00,   -0.1,    0.1,    0.1,   -0.1,   -0.2,   -0.0,   -0.0,    0.2,   -0.0,   -0.1,   -0.1,   -0.0,   -0.2,    0.1,    0.1,   -0.1,    0.0,   -0.1,  999.0,   -0.4,  999.0,  999.0,  999.0,  999.0,  999.0,  999.0,  999.0,  999.0,  999.0,   -5.4,   -5.6,  999.0,   -5.6,   -5.6,   -5.5,  999.0,   -5.5,   -5.5,   -5.5,   -5.5,   -5.6,   -5.5,   -5.5,   -5.5,   -5.5,   -5.5,   -5.6,   -5.4,   -5.6,   -5.5,  999.0,   -5.5,   -5.5,   -5.6,   -5.4,   -5.5,   -5.4,   -5.5
2000/12/06 02:10,    0.1,   -0.2,    0.0,   -0.2,   -0.1,   -0.1,   -0.1,    0.0,   -0.1,    0.1,   -0.0,    0.0,   -0.0,    0.2,    0.0,   -0.0,    0.6,  999.0,  999.0,  999.0,  999.0,  999.0,   -2.6,  999.0,  999.0,  999.0,  999.0,  999.0,  999.0,  999.0,   -5.4,   -5.5,   -5.7,   -5.4,   -5.5,   -5.5,   -5.6,   -5.4,   -5.4,   -5.4,   -5.5,   -5.4,   -5.5,   -5.6,   -5.5,   -5.5,   -5.6,   -5.5,   -5.5,   -5.6,   -5.5,   -5.6,   -5.5,   -5.4,   -5.2,   -5.5,   -5.5,   -5.5
2000/12/06 02:20,    0.6,   -0.1,   -0.1,   -0.2,   -0.1,   -0.0,  999.0,   -0.2,   -0.4,    0.1,    0.3,    0.1,    0.4,    0.8,    0.5,    0.3,   -0.2,   -0.6,   -0.4,   -0.3,   -0.2,  999.0,  999.0,  999.0,  999.0,  999.0,  999.0,  999.0,  999.0,  999.0,  999.0,   -5.5,  999.0,   -3.1,   -5.4,   -5.6,   -5.6,   -5.5,   -5.6,   -5.6,   -5.5,   -5.2,  999.0,   -5.5,   -5.6,   -5.4,   -5.4,   -5.5,  999.0,   -5.5,  999.0,   -5.5,   -5.6,   -5.5,   -5.6,   -5.5,   -2.8,   -5.6
2000/12/06 02:30,   -0.0,    0.1,   -0.0,   -0.2,   -0.2,   -0.1,   -0.1,   -0.3,   -0.1,    0.4,    0.6,    0.3,    0.6,    1.1,    0.2,  999.0,  999.0,    0.2,   -0.0,   -0.0,  999.0,  999.0,  999.0,  999.0,  999.0,  999.0,  999.0,    5.5,  999.0,    5.5,    5.5,    0.0,   -4.0,   -0.1,  999.0,  999.0,   -5.4,  999.0,   -5.6,   -5.3,   -5.4,   -5.5,   -5.5,   -5.5,   -5.5,   -5.5,   -5.5,   -5.4,   -5.4,   -5.6,   -5.5,   -5.5,   -5.5,   -5.5,   -5.5,   -5.4,   -5.4,   -5.5
2000/12/06 02:40,   -0.3,    0.3,    0.2,   -0.1,   -0.0,    0.0,   -0.0,   -0.0,    0.3,    0.0,   -0.2,    0.1,    0.0,    0.0,    0.1,    0.1,  999.0,    0.1,    0.1,   -0.6,   -0.1,  999.0,   -1.2,   -1.2,  999.0,  999.0,  999.0,  999.0,  999.0,  999.0,  999.0,   -4.5,  999.0,   -5.6,   -5.5,   -5.6,   -5.5,   -5.5,   -5.5,   -5.6,   -5.6,   -5.4,   -5.6,   -5.6,   -5.5,   -5.5,   -5.6,  999.0,   -5.4,   -5.6,   -5.4,   -5.6,   -5.6,   -5.5,   -5.4,   -5.6,   -5.5,   -5.6
2000/12/06 02:50,    0.0,   -0.0,    0.1,    0.1,   -0.2,   -0.1,    0.3,   -0.3,   -0.1,    0.1,   -0.1,    0.3,    0.1,    0.2,    0.3,    0.3,    0.5,    0.9,   -0.1,   -0.1,    0.3,  999.0,    0.2,    0.5,  999.0,   -0.0,  999.0,  999.0,  999.0,   -0.1,  999.0,  999.0,  999.0,  999.0,   -5.5,   -5.5,   -5.5,  999.0,   -5.4,   -5.4,   -5.5,   -5.5,  999.0,   -5.5,   -5.5,   -5.5,   -5.2,   -5.4,   -5.4,   -5.5,   -5.5,   -5.6,   -5.5,   -5.5,   -5.6,  999.0,   -5.7,   -5.3
2000/12/06 03:00,   -0.2,    0.6,    0.3,   -0.1,   -0.2,   -0.1,  999.0,    0.1,    1.0,    0.8,    1.0,    0.5,    0.2,    0.4,    0.6,   -0.1,    0.4,  999.0,  999.0,    0.1,   -0.0,  999.0,   -0.2,  999.0,  999.0,   -0.8,  999.0,  999.0,  999.0,  999.0,  999.0,  999.0,  999.0,   -5.4,   -5.4,   -5.6,   -5.5,   -5.5,   -5.4,   -5.6,   -5.7,   -5.6,   -5.3,   -5.5,   -5.5,   -5.5,   -5.4,   -5.5,   -5.6,   -5.5,  999.0,   -5.4,   -5.4,   -5.5,  999.0,   -5.4,   -5.5,   -5.5
2000/12/06 03:10,   -0.1,    0.3,    0.9,   -0.1,    0.0,    0.0,    0.4,   -0.2,    0.2,    0.4,    0.2,    0.1,    0.3,    0.7,    0.6,    0.3,    1.0,    0.5,    0.6,    0.5,    0.6,    0.5,   -0.1,   -0.3,  999.0,  999.0,  999.0,  999.0,  999.0,  999.0,   -1.9,  999.0,  999.0,  999.0,   -5.5,  999.0,   -5.5,   -5.5,   -5.5,   -5.6,   -5.5,   -5.5,   -5.5,   -5.6,   -5.6,   -5.5,   -5.4,   -5.5,   -5.5,  999.0,   -5.6,  999.0,   -5.5,   -5.5,   -5.4,   -5.6,   -5.5,   -5.5
2000/12/06 03:20,   -0.0,    0.1,    0.4,   -0.2,   -0.2,   -0.1,    1.0,    0.2,    0.5,    0.8,  999.0,    1.1,    1.3,    1.0,    1.2,    0.3,    0.4,    0.0,  999.0,    0.0,    0.1,    0.0,   -0.1,    0.2,  999.0,  999.0,  999.0,  999.0,  999.0,  999.0,  999.0,  999.0,  999.0,  999.0,   -5.6,   -5.4,   -5.5,  999.0,   -5.5,   -5.5,   -5.5,   -5.6,   -5.6,  999.0,   -5.5,   -5.4,  999.0,   -5.5,   -5.4,   -5.5,   -5.5,   -5.5,   -5.5,  999.0,   -5.6,   -5.5,   -5.6,   -5.4
2000/12/06 03:30,   -0.1,   -0.2,  999.0,   -0.3,  999.0,   -0.1,    0.6,   -0.1,    0.3,   -0.1,    0.2,    0.7,    0.6,    0.4,    0.4,    0.4,    0.5,    0.3,    0.4,    0.5,    0.8,    0.0,    0.1,    0.3,    0.8,  999.0,  999.0,  999.0,  999.0,  999.0,  999.0,  999.0,  999.0,  999.0,   -5.4,   -5.5,   -5.6,   -5.6,   -5.4,   -5.6,   -5.3,   -5.6,   -5.6,   -5.7,   -5.4,   -5.5,  999.0,   -5.4,   -5.5,   -5.5,   -5.5,   -5.6,   -5.5,   -5.4,  999.0,   -5.5,   -5.6,   -5.6
2000/12/06 03:40,   -0.1,    0.9,   -1.1,   -0.0,   -0.2,    0.5,    0.3,    0.3,    1.3,    0.7,    0.8,    0.5,   -0.4,    0.1,    0.3,    0.3,    0.1,    0.1,    0.1,   -0.1,    0.3,   -0.2,    0.0,   -0.6,   -0.2,    0.7,  999.0,  999.0,    0.2,  999.0,  999.0,  999.0,  999.0,  999.0,  999.0,   -5.5,  999.0,   -5.6,   -5.4,  999.0,   -5.6,   -5.5,  999.0,    1.5,   -5.4,  999.0,  999.0,    1.5,  999.0,   -5.4,   -5.5,  999.0,  999.0,   -5.5,   -5.4,  999.0,   -5.6,   -5.6
2000/12/06 03:50,    0.6,    0.6,    0.6,    0.4,  999.0,    0.3,    2.2,    0.1,    1.0,    0.9,    0.9,    0.9,    0.7,    0.4,    1.1,    0.1,    0.3,    0.1,   -0.6,  999.0,    0.0,    0.1,    0.1,   -0.7,  999.0,  999.0,  999.0,  999.0,  999.0,  999.0,  999.0,  999.0,  999.0,  999.0,  999.0,  999.0,  999.0,  999.0,  999.0,  999.0,  999.0,  999.0,  999.0,  999.0,   -5.6,  999.0,  999.0,   -5.6,   -5.4,  999.0,   -5.6,   -5.5,   -5.5,   -5.4,   -5.4,   -5.6,   -5.5,   -5.6
2000/12/06 04:00,    0.2,    0.6,    0.3,   -0.2,   -0.3,    0.2,   -0.1,    0.4,    0.5,    0.5,    0.8,    0.7,    0.8,    0.8,    0.6,    0.7,   -0.1,    0.1,    0.6,    0.1,    0.1,    0.1,    0.2,   -0.0,   -0.3,   -0.1,  999.0,  999.0,    0.0,   -0.2,   -0.1,  999.0,  999.0,  999.0,  999.0,  999.0,  999.0,  999.0,   -5.6,   -5.5,   -5.5,   -5.5,   -5.5,   -5.4,   -5.4,   -5.4,  999.0,   -5.5,   -5.6,   -5.5,   -5.6,  999.0,   -5.5,   -5.4,   -5.6,   -5.6,   -5.5,   -5.6
2000/12/06 04:10,   -0.4,    0.3,    0.8,    0.9,    0.8,   -0.1,    0.3,    0.2,    0.8,    1.3,    1.0,    0.6,    0.8,    0.5,    0.7,    0.9,    0.7,    0.1,    0.2,    0.1,    0.3,    0.9,   -0.0,   -0.0,   -0.2,    0.0,   -0.1,  999.0,   -0.2,  999.0,  999.0,  999.0,  999.0,   -3.1,  999.0,  999.0,  999.0,  999.0,  999.0,  999.0,   -4.4,   -5.5,   -5.5,   -5.5,   -5.5,   -5.5,   -5.4,   -5.6,   -5.5,   -5.5,   -5.5,   -5.5,   -5.4,   -5.5,   -5.5,   -5.5,   -5.5,   -5.5
2000/12/06 04:20,    0.7,    0.3,    0.7,    0.0,   -0.3,    0.2,    1.7,    0.9,    0.3,    0.8,    0.8,    0.2,   -0.1,    0.2,    0.4,    0.2,    0.5,    0.1,    0.9,   -0.3,    0.4,   -0.2,    0.2,    0.2,    0.2,   -0.1,    0.1,  999.0,  999.0,  999.0,  999.0,  999.0,  999.0,  999.0,  999.0,  999.0,   -4.3,   -5.5,   -5.4,   -5.5,   -5.4,   -5.4,   -5.6,  999.0,   -5.5,   -5.5,   -5.5,   -5.6,   -5.5,   -5.6,   -5.6,   -5.4,   -5.5,   -5.5,  999.0,   -5.6,   -5.4,   -5.5
2000/12/06 04:30,    0.4,   -0.0,    0.6,  999.0,    1.2,    1.1,    1.0,    0.8,    0.9,    0.7,    0.1,    0.4,    0.7,    0.4,    0.5,    0.2,    0.3,   -0.6,   -0.5,   -0.1,   -0.1,   -0.4,   -0.0,    0.1,    0.2,    0.1,    0.2,    0.0,  999.0,  999.0,  999.0,   -1.2,  999.0,  999.0,  999.0,  999.0,  999.0,  999.0,   -5.4,   -5.5,   -5.5,   -5.5,   -5.6,   -5.6,   -5.5,   -5.5,   -5.6,   -5.4,   -5.6,   -5.5,   -5.4,   -5.6,   -5.4,   -5.6,   -5.6,   -5.7,   -5.5,  999.0
2000/12/06 04:40,   -0.8,  999.0,  999.0,    0.3,    0.0,    0.3,    0.8,   -0.4,   -0.5,  999.0,  999.0,    0.4,    0.5,    0.8,   -0.0,    1.3,   -0.0,    0.3,  999.0,    0.5,    0.5,    0.3,    0.3,    0.5,    0.0,   -0.2,  999.0,   -0.0,  999.0,  999.0,  999.0,  999.0,  999.0,  999.0,  999.0,  999.0,  999.0,  999.0,   -5.5,  999.0,  999.0,   -5.6,   -5.5,  999.0,   -5.5,   -5.5,   -5.5,   -5.5,   -5.4,   -5.5,   -5.5,   -5.5,   -5.6,   -5.5,   -5.5,   -5.5,  999.0,   -5.4
2000/12/06 04:50,   -0.0,    0.9,   -0.0,    0.1,    0.8,    0.6,    0.3,    0.0,    0.4,    0.3,    0.7,    0.6,    0.9,    0.3,    0.6,    0.0,    0.1,    0.5,   -0.0,    0.1,    0.2,    0.2,    0.4,   -0.1,   -0.5,   -0.2,  999.0,  999.0,   -0.0,  999.0,  999.0,    1.9,  999.0,  999.0,  999.0,  999.0,  999.0,  999.0,  999.0,   -5.5,   -5.5,   -5.5,  999.0,   -5.5,   -5.5,   -5.6,   -5.6,   -5.6,   -5.5,   -5.6,   -5.6,  999.0,   -5.5,   -5.5,   -5.7,   -5.5,   -5.6,   -5.5
2000/12/06 05:00,   -0.2,    0.0,   -0.2,   -0.1,   -0.5,   -0.4,   -0.5,   -0.3,   -0.3,    0.1,   -0.4,   -0.7,    0.1,   -0.9,   -0.1,    0.2,    0.4,  999.0,   -0.1,   -0.0,   -0.1,   -0.2,   -0.6,  999.0,  999.0,  999.0,  999.0,  999.0,  999.0,  999.0,  999.0,  999.0,  999.0,  999.0,  999.0,  999.0,  999.0,  999.0,  999.0,   -5.6,  999.0,  999.0,  999.0,   -5.5,   -5.5,   -5.5,   -5.5,   -5.5,   -7.0,   -5.5,   -5.5,   -5.6,   -5.3,   -5.5,  999.0,   -5.5,   -5.5,   -5.4
2000/12/06 05:10,    0.3,  999.0,    0.1,    0.1,   -0.0,   -0.1,  999.0,    0.1,    0.1,   -0.4,   -0.4,    0.1,    1.1,   -0.2,   -0.8,  999.0,  999.0,    0.1,    0.8,   -0.3,    0.1,   -0.0,  999.0,  999.0,  999.0,  999.0,  999.0,    0.1,  999.0,  999.0,  999.0,  999.0,  999.0,  999.0,  999.0,  999.0,   -5.6,   -5.4,  999.0,   -5.4,   -5.5,   -5.5,   -5.4,   -5.4,   -5.6,   -5.5,  999.0,   -5.6,   -5.6,   -5.4,   -5.6,   -5.4,   -5.5,  999.0,   -5.6,   -5.5,   -5.5,   -5.5
2000/12/06 05:20,    0.1,   -0.1,   -0.3,   -0.4,    0.6,    1.1,   -0.1,   -0.0,    0.3,    0.2,   -0.1,    0.0,    0.0,    0.1,    0.4,    0.2,    0.0,    0.0,    0.1,  999.0,    0.3,  999.0,  999.0,  999.0,  999.0,  999.0,  999.0,    0.1,  999.0,  999.0,  999.0,  999.0,  999.0,  999.0,    5.5,  999.0,    5.6,    5.5,    5.6,    5.5,  999.0,    5.5,    5.4,    5.5,    5.6,    5.5,    5.6,    5.6,    5.4,  999.0,    5.5,    5.5,  999.0,    5.4,    5.5,    5.5,    5.6,    5.6
2000/12/06 05:30,  999.0,  999.0,   -0.7,   -0.1,   -0.1,   -0.1,    0.0,   -0.0,    0.1,    0.1,   -0.0,    0.0,    0.0,    0.1,    0.2,    0.0,   -0.1,    0.0,    0.1,    0.0,    0.1,  999.0,  999.0,  999.0,  999.0,  999.0,  999.0,  999.0,  999.0,  999.0,  999.0,    5.6,  999.0,    5.4,    5.4,    5.6,    5.3,    5.4,    5.6,    5.5,    5.5,    5.5,    5.4,    5.6,    5.5,    5.6,    5.5,    5.5,    5.4,    5.6,    5.4,  999.0,    5.5,    5.8,    5.4,    5.4,  999.0,    5.5
2000/12/06 05:40,  999.0,  999.0,    0.2,   -0.2,   -0.3,   -0.1,   -0.0,   -0.1,    0.0,   -0.0,   -0.0,   -0.0,    0.1,    0.3,    0.1,    0.2,    0.0,    0.1,    0.0,    0.2,    0.1,  999.0,  999.0,  999.0,  999.0,  999.0,  999.0,  999.0,    5.6,    5.4,    5.5,  999.0,    5.5,    5.4,    5.5,    5.5,    5.5,    5.4,    5.5,  999.0,  999.0,    5.5,    5.5,    5.5,    5.5,  999.0,    5.4,  999.0,    5.6,    5.6,    5.5,    5.4,    5.5,    5.6,    5.5,    5.5,    5.6,    5.5
2000/12/06 05:50,   -0.2,  999.0,    0.0,   -0.0,   -0.3,   -0.0,    0.1,   -0.1,    0.0,   -0.1,   -0.1,    0.0,   -0.0,   -0.0,    0.1,    0.1,    0.0,    0.1,    0.1,    0.1,    0.2,  999.0,    1.9,  999.0,  999.0,  999.0,  999.0,    5.6,  999.0,    5.5,    5.5,    5.5,  999.0,    5.4,    5.5,    5.5,    5.5,    5.7,    5.5,    5.5,  999.0,    5.4,    5.4,    5.6,    5.6,    5.6,  999.0,    5.4,    5.6,    5.5,  999.0,    5.5,    5.5,    5.4,    5.6,  999.0,    5.5,    5.5
2000/12/06 06:00,   -0.3,   -0.2,    0.0,   -0.2,   -0.2,   -0.1,   -0.0,   -0.2,   -0.1,    0.1,    0.0,    0.0,    0.1,    0.1,    0.1,    0.1,    0.0,    0.1,    0.2,    0.3,  999.0,  999.0,  999.0,  999.0,  999.0,  999.0,  999.0,  999.0,  999.0,    5.6,    5.4,    5.5,  999.0,  999.0,    5.5,    5.6,  999.0,    5.6,    5.6,    5.5,    5.5,    5.4,    5.5,    5.6,  999.0,    5.5,  999.0,    5.6,    5.5,    5.4,    5.3,    5.5,  999.0,  999.0,    5.4,  999.0,  999.0,    5.5
2000/12/06 06:10,   -0.1,   -0.2,   -0.2,   -0.3,   -0.2,   -0.1,   -0.2,    0.0,   -0.2,    0.0,    0.1,    0.0,    0.1,    0.1,    0.1,    0.3,    0.1,    0.2,    0.1,    0.1,  999.0,  999.0,  999.0,  999.0,  999.0,  999.0,  999.0,  999.0,  999.0,    5.4,    5.7,    5.5,    5.4,    5.6,    5.5,    5.5,    5.5,    5.5,    5.6,    5.6,    5.5,    5.5,    5.5,    5.4,    5.5,    5.4,    5.4,  999.0,    5.4,    5.6,    5.5,    5.6,    5.5,    5.5,    5.5,  999.0,  999.0,    5.5
2000/12/06 06:20,   -0.1,   -0.2,   -0.1,   -0.0,   -0.2,   -0.1,   -0.1,   -0.1,   -0.2,    0.1,   -0.1,   -0.1,    0.1,   -0.1,   -0.1,   -0.0,   -0.1,   -0.1,   -0.1,   -0.0,  999.0,  999.0,  999.0,  999.0,  999.0,  999.0,  999.0,  999.0,  999.0,  999.0,  999.0,    5.5,    5.6,    5.5,    5.5,    5.6,    5.5,    5.6,    5.5,    5.5,    5.5,    5.5,    5.5,    5.5,    5.5,    5.5,    5.6,    5.5,  999.0,    5.6,    5.5,    5.4,    5.4,    5.5,  999.0,    5.5,    5.4,    5.6
2000/12/06 06:30,   -0.1,   -0.0,   -0.1,   -0.2,   -0.1,   -0.0,   -0.0,   -0.1,    0.0,    0.0,   -0.3,    0.1,    0.2,    0.1,   -0.0,    0.0,    0.2,    0.0,   -0.1,  999.0,  999.0,  999.0,  999.0,  999.0,  999.0,  999.0,  999.0,  999.0,    5.5,    5.5,    5.6,    5.6,    5.5,    5.6,    5.4,  999.0,    5.5,    5.6,    5.5,  999.0,    5.5,    5.4,    5.5,    5.5,    5.4,    5.6,    5.5,    5.6,    5.6,  999.0,    5.6,    5.6,  999.0,    5.4,    5.5,    5.6,    5.6,    5.3
2000/12/06 06:40,    0.1,    0.2,   -0.0,   -0.1,   -0.1,   -0.0,   -0.0,   -0.1,    0.0,   -0.0,    0.0,    0.0,   -0.0,   -0.0,    0.1,   -0.1,    0.2,    0.1,    0.3,    0.1,  999.0,  999.0,  999.0,  999.0,  999.0,  999.0,  999.0,  999.0,    5.5,    5.6,  999.0,    5.5,  999.0,    5.5,    5.6,    5.5,    5.5,    5.5,    5.5,  999.0,    5.5,  999.0,    5.5,    5.5,    5.5,    5.5,    5.6,    5.5,    5.5,    5.5,    5.5,    5.5,    5.5,    5.6,  999.0,    5.5,    5.6,    5.6
2000/12/06 06:50,   -0.1,   -0.1,   -0.2,   -0.2,   -0.1,   -0.0,    0.1,   -0.2,    0.1,   -0.0,   -0.0,   -0.0,    0.2,  999.0,    0.1,    0.2,    0.2,   -0.0,    0.0,   -0.0,  999.0,  999.0,  999.0,  999.0,  999.0,  999.0,  999.0,    5.4,    5.5,    5.4,    5.4,    5.5,    5.5,    5.6,    5.5,    5.4,    5.4,    5.6,    5.5,    5.5,    5.5,    5.6,    5.4,    5.5,    5.6,    5.6,    5.4,    5.6,    5.5,    5.5,    5.6,    5.4,    5.5,    5.5,    5.7,  999.0,    5.5,    5.5
2000/12/06 07:00,    0.0,    0.0,   -0.1,   -0.2,   -0.0,   -0.1,   -0.1,   -0.1,    0.1,    0.0,   -0.1,    0.0,    0.1,  999.0,    0.1,    0.1,    0.1,    0.2,    0.1,    0.3,    0.4,  999.0,  999.0,  999.0,  999.0,  999.0,  999.0,  999.0,    5.4,  999.0,    5.5,    5.5,    5.5,    5.4,    5.5,    5.5,    5.5,    5.5,    5.6,  999.0,  999.0,    5.4,    5.6,    5.5,    5.5,    5.4,  999.0,    5.5,    5.4,    5.4,    5.5,    5.6,  999.0,    5.5,  999.0,    5.4,    5.5,    5.4
2000/12/06 07:10,   -0.0,    0.1,   -0.1,   -0.2,   -0.1,   -0.0,   -0.1,    0.0,   -0.1,   -0.1,    0.0,    0.0,   -0.0,  999.0,    0.0,    0.0,    0.1,   -0.1,    0.1,    0.0,   -0.0,   -0.0,  999.0,  999.0,  999.0,  999.0,  999.0,  999.0,  999.0,  999.0,  999.0,  999.0,    5.4,    5.6,    5.5,    5.6,    5.5,    5.5,    5.5,    5.4,  999.0,    5.7,    5.8,    5.5,  999.0,  999.0,    5.5,    5.6,    5.5,    5.3,    5.6,    5.5,    5.5,  999.0,    5.5,    5.6,    5.5,    5.6
2000/12/06 07:20,   -0.1,   -0.0,    0.1,   -0.2,   -0.1,   -0.1,   -0.3,   -0.2,    0.1,   -0.1,   -0.1,    0.0,   -0.1,    0.1,    0.1,   -0.1,   -0.1,   -0.0,   -0.8,    0.0,    0.2,  999.0,   -5.5,   -2.7,   -5.5,  999.0,  999.0,  999.0,   -5.4,   -5.4,   -5.5,  999.0,  999.0,  999.0,   -2.8,   -0.1,   -2.7,    5.5,   -5.5,   -0.1,   -0.0,  999.0,    5.4,   -0.0,   -5.5,   -2.7,    0.0,    5.5,    2.8,   -2.8,    5.6,   -0.0,    2.8,   -5.3,   -2.7,  999.0,    5.5,    2.8
2000/12/06 07:30,   -0.1,   -0.1,   -0.1,   -0.3,   -0.1,   -0.0,   -0.1,   -0.1,    0.0,    0.0,    0.1,    0.2,    0.1,    0.1,    0.1,    0.2,    0.2,    0.1,  999.0,    0.2,    0.2,   -0.0,  999.0,  999.0,  999.0,   -5.4,  999.0,    5.4,   -5.6,   -2.8,    0.0,    1.8,    0.0,   -5.6,    5.4,    5.4,    2.0,   -5.4,    5.5,    5.4,    2.8,   -5.5,   -0.0,   -5.5,   -0.1,   -1.9,   -2.7,   -5.5,  999.0,   -5.5,   -5.5,   -5.5,   -5.5,  999.0,   -0.0,  999.0,   -2.8,    0.2
2000/12/06 07:40,   -0.1,   -0.1,   -0.1,   -0.2,   -0.1,   -0.0,    0.1,   -0.1,   -0.0,    0.0,   -0.1,    0.0,    0.1,   -0.2,    0.0,    0.1,    0.0,    0.0,    0.5,   -0.2,  999.0,  999.0,  999.0,  999.0,  999.0,  999.0,  999.0,  999.0,  999.0,  999.0,  999.0,  999.0,  999.0,  999.0,   -2.5,  999.0,   -5.5,   -5.5,   -5.4,   -5.5,   -5.5,   -5.5,   -5.5,   -5.5,   -5.6,   -5.5,   -5.7,   -5.5,   -5.5,   -5.6,   -5.5,   -5.5,   -5.6,   -5.5,   -5.5,   -5.6,   -5.6,   -5.5
2000/12/06 07:50,   -0.2,   -0.1,   -0.1,   -0.1,   -0.1,   -0.1,   -0.2,   -0.0,  999.0,    0.1,    0.0,   -0.0,    0.1,   -0.7,    0.2,   -0.0,    0.0,   -0.0,  999.0,  999.0,    0.1,  999.0,  999.0,  999.0,  999.0,  999.0,  999.0,  999.0,   -5.5,   -5.6,  999.0,   -5.4,   -5.6,   -5.4,  999.0,   -5.5,   -5.5,   -5.5,   -5.5,   -5.5,   -5.6,   -5.5,   -5.4,   -5.5,   -5.4,  999.0,   -5.6,   -5.5,   -5.4,   -5.5,   -5.6,   -5.6,   -5.5,   -5.4,   -5.5,   -5.6,   -5.5,   -5.5
2000/12/06 08:00,   -0.0,   -0.0,   -0.1,   -0.2,   -0.1,   -0.1,   -0.5,   -0.1,   -0.1,   -0.1,   -0.1,    0.1,   -0.2,  999.0,    0.2,    0.1,    0.1,    0.1,  999.0,  999.0,  999.0,  999.0,  999.0,  999.0,  999.0,   -5.5,  999.0,   -5.5,   -5.5,   -5.6,   -5.6,   -5.5,   -5.5,   -5.5,   -1.8,   -5.6,   -3.6,   -1.8,   -5.5,   -5.4,   -5.4,   -3.7,   -5.7,   -3.7,   -1.7,   -1.8,   -5.6,    0.0,   -5.6,   -5.4,   -5.5,   -3.6,   -5.5,   -1.8,   -5.5,    0.1,   -3.8,  999.0
2000/12/06 08:10,   -0.1,    0.1,   -0.0,   -0.1,    0.0,    0.0,    0.2,   -0.1,  999.0,   -0.1,   -0.1,    0.0,    0.1,  999.0,    0.1,   -0.9,    0.1,    0.1,   -5.4,   -5.5,   -5.6,   -5.4,  999.0,   -5.5,   -5.5,   -5.6,   -5.4,   -5.5,   -5.6,  999.0,   -5.6,  999.0,   -0.0,   -5.5,  999.0,   -5.5,   -5.4,   -5.6,   -5.7,  999.0,   -5.5,   -5.5,   -5.5,  999.0,   -5.6,   -5.6,  999.0,  999.0,   -0.1,    2.8,    5.5,    5.6,    5.5,    5.5,    5.4,    5.5,   -0.0,    1.8
2000/12/06 08:20,    0.2,    0.2,   -0.1,   -0.2,   -0.4,    0.0,    0.2,   -0.2,    0.1,   -0.1,   -0.2,   -0.1,   -0.2,    0.1,    0.1,  999.0,    0.1,    0.1,  999.0,  999.0,  999.0,  999.0,  999.0,  999.0,  999.0,  999.0,  999.0,  999.0,    5.5,   -5.4,    5.5,   -0.0,   -5.7,    5.5,    0.0,    5.5,    2.8,   -5.5,    2.8,    2.7,    2.7,   -0.0,    5.6,    1.8,    1.8,    5.5,    5.6,    5.4,    5.5,    2.7,    2.8,    5.5,    1.8,    1.8,    5.5,    1.8,    2.7,    0.0
2000/12/06 08:30,   -4.5,  999.0,   -2.7,   -0.2,   -1.2,    0.0,    0.0,   -0.2,    0.1,   -0.0,   -0.1,    0.1,   -0.0,   -0.1,    0.0,   -0.1,   -0.0,   -5.5,   -5.5,  999.0,  999.0,   -5.5,  999.0,  999.0,   -5.6,   -5.6,  999.0,  999.0,  999.0,    5.5,    2.8,    5.5,    1.9,    5.6,    5.6,    5.5,    5.4,    5.5,    5.5,    5.5,    5.5,    1.8,    5.6,    2.7,    2.8,    3.7,    3.6,    3.7,    1.8,    5.6,    1.8,    3.7,    5.5,    5.5,    5.6,  999.0,    5.5,    5.5
2000/12/06 08:40,   -5.5,  999.0,  999.0,   -0.2,   -0.1,   -0.1,    0.0,   -0.1,    0.1,   -0.1,   -0.1,    0.0,    0.1,    0.3,   -0.1,   -0.2,  999.0,  999.0,    3.3,  999.0,    5.5,    5.5,    5.5,    5.5,    5.6,    5.5,    5.5,    5.6,    5.7,    5.5,    5.5,    5.5,    5.5,    5.5,    5.4,    5.5,    5.5,    5.5,    5.5,    5.6,    5.5,    5.4,    5.5,    5.5,    5.5,    5.5,    5.5,    5.5,    5.5,    5.5,    5.5,    5.6,    5.5,    5.6,    5.5,    5.6,    5.5,    5.6
2000/12/06 08:50,   -5.5,  999.0,  999.0,    0.2,   -0.2,    0.0,  999.0,   -0.1,    0.0,   -0.0,   -0.1,    0.1,   -0.0,   -0.0,    0.3,   -0.0,  999.0,  999.0,  999.0,    5.5,    5.5,    5.5,    5.5,    5.4,    5.5,    5.5,    5.6,    5.5,    5.6,    5.4,    5.5,    5.4,    5.6,    5.4,    5.5,    5.6,    5.5,    5.5,    5.5,    5.5,    5.5,    5.5,    5.5,    5.5,    5.5,    5.5,    5.5,    5.5,    5.5,    5.5,    5.5,    5.5,    5.6,    5.5,    5.5,    5.5,    5.5,    5.5
2000/12/06 09:00,   -4.6,   -0.5,  999.0,  999.0,   -0.1,    0.0,   -0.4,   -0.1,    0.1,   -0.1,   -0.1,    0.1,    0.1,    0.0,    0.1,  999.0,  999.0,   -5.5,  999.0,   -5.3,    5.5,    1.8,    3.7,    5.5,    5.5,    1.9,    1.9,    3.6,    5.6,    5.5,    5.5,    5.5,    5.6,    2.8,    5.5,    5.6,    5.6,    5.5,    5.5,    5.5,    5.5,    5.5,    5.4,    5.5,    5.5,    5.5,    5.6,    5.5,    5.4,    5.5,    5.5,    5.4,    5.5,    5.4,    5.6,    5.5,    5.4,    5.5
2000/12/06 09:10,   -5.5,  999.0,  999.0,  999.0,   -0.4,   -0.1,   -0.2,   -0.2,   -0.0,   -0.2,    0.1,    0.1,    0.0,  999.0,    0.4,  999.0,  999.0,  999.0,  999.0,    5.4,    5.4,    5.5,    5.5,    5.5,    5.5,    5.5,    5.5,    5.5,    5.5,    5.5,    5.5,    5.4,    5.5,    5.5,    5.5,    5.5,    5.6,    5.5,    5.5,    5.6,    5.5,    5.5,    5.6,    5.4,    5.5,    5.6,    5.5,    5.6,  999.0,    5.5,    5.6,    5.5,    5.5,    5.5,    5.6,    5.6,    5.5,    5.4
2000/12/06 09:20,   -5.5,  999.0,  999.0,   -0.1,   -0.1,    0.0,   -0.2,    0.1,   -0.1,   -0.1,    0.0,    0.0,   -0.2,  999.0,  999.0,  999.0,  999.0,  999.0,  999.0,  999.0,    5.5,    5.5,    5.5,    5.6,    5.5,    5.5,    5.5,    5.5,    5.5,    5.6,    5.5,    5.5,    5.4,    5.4,    5.5,    5.4,    5.5,    5.5,    5.5,    5.5,    5.4,    5.4,    5.6,    5.5,    5.5,    5.4,    5.5,    5.5,    5.5,    5.5,    5.5,    5.6,    5.5,    5.5,    5.6,    5.6,    5.5,    5.6
2000/12/06 09:30,   -2.7,   -0.0,    0.2,    0.2,    0.1,    0.2,    0.4,   -0.1,   -0.5,   -0.0,   -0.0,    0.1,    0.0,    0.1,   -0.1,  999.0,  999.0,  999.0,  999.0,  999.0,    5.5,    2.8,    2.7,    5.5,    1.8,    1.8,    5.5,    5.6,    1.9,    5.5,    5.6,    5.5,    5.5,    5.5,    3.7,    0.0,    3.6,    2.7,    5.5,    1.8,    0.1,    3.7,    0.1,    0.1,    0.0,   -0.0,    5.6,    0.1,    1.9,    1.8,    3.7,   -0.0,    5.6,    0.1,   -1.8,    0.0,    5.6,    5.6
2000/12/06 09:40,   -5.5,  999.0,  999.0,   -0.0,    0.0,    0.1,   -0.0,   -0.1,   -0.0,    0.0,    0.0,    0.0,    0.1,    0.1,  999.0,  999.0,  999.0,  999.0,  999.0,  999.0,    5.5,    5.5,    5.4,    5.5,    5.6,    5.5,    5.5,    5.6,    5.5,    5.5,    5.5,    5.5,    5.5,    5.5,    5.5,    5.4,    5.5,    5.5,    5.5,    5.5,    5.4,    5.5,    5.5,    5.5,    5.5,    5.6,    5.5,    5.5,    5.6,    5.6,    5.5,    5.5,    5.5,    5.5,    5.5,    5.5,    5.5,    5.5
2000/12/06 09:50,   -5.5,  999.0,  999.0,   -0.3,   -0.1,    0.1,    0.1,    0.2,    0.1,    0.7,   -0.0,    0.0,    0.1,  999.0,  999.0,  999.0,  999.0,  999.0,    5.5,    5.5,    5.5,    5.5,    5.4,    5.5,    5.5,    5.5,    5.5,    5.6,    5.5,    5.6,    5.4,    5.5,    5.5,    5.5,    5.5,    5.5,    5.5,    5.6,    5.5,    5.5,    5.5,    5.5,    5.5,    5.6,    5.5,    5.4,    5.4,    5.5,    5.4,    5.5,    5.5,    5.4,    5.5,    5.5,    5.5,    5.5,    5.4,    5.5
2000/12/06 10:00,   -5.5,  999.0,  999.0,    0.0,   -0.1,    0.9,    0.8,    0.9,    2.8,    5.4,    1.9,    0.1,   -0.1,  999.0,  999.0,  999.0,  999.0,  999.0,    0.1,    0.1,  999.0,    5.5,    5.5,    1.7,    3.7,   -0.0,    5.5,    3.7,    3.6,    5.6,    5.5,    5.4,    1.8,    2.7,    2.8,    5.6,    5.5,    1.8,   -0.0,    0.0,    5.5,    3.7,    0.0,    1.8,    5.6,    5.5,    5.4,    5.4,    5.5,    5.6,    5.5,    5.5,    5.5,    5.4,    5.5,    5.5,    5.4,    0.0
2000/12/06 10:10,   -5.5,  999.0,  999.0,  999.0,    0.1,    1.3,    1.2,    1.0,    1.4,    5.6,    1.8,    0.0,    0.0,  999.0,  999.0,  999.0,   -5.4,   -0.0,    2.7,   -0.0,    5.5,  999.0,   -0.0,    1.8,    5.5,    5.5,    5.6,    5.5,    5.5,    5.5,    5.5,    5.5,    5.5,    5.6,    5.6,    5.6,    5.4,    5.5,    5.4,   -0.0,   -0.0,    1.9,   -0.0,    0.0,    1.8,    1.8,   -0.1,  999.0,    3.7,    1.8,    3.6,    3.7,   -0.0,    0.0,    1.9,    5.5,   -0.1,    3.7
2000/12/06 10:20,   -5.5,  999.0,  999.0,    0.0,    0.1,    0.3,   -0.1,   -0.4,    0.0,  999.0,    0.1,  999.0,  999.0,  999.0,  999.0,  999.0,  999.0,    5.5,    5.6,    5.5,    5.5,    5.5,    5.5,    5.5,    5.5,    5.5,    5.5,    5.5,    5.5,    5.5,    5.5,    5.5,    5.5,    5.6,    5.4,    5.5,    5.5,    5.5,    5.6,    5.5,    5.4,    5.6,    5.6,    5.4,  999.0,    5.6,    5.4,    5.5,    5.6,    5.5,    5.4,    5.5,    5.5,    5.4,    5.5,    5.5,    5.5,    5.5
2000/12/06 10:30,   -4.1,   -0.2,   -0.1,   -0.2,   -0.1,   -0.2,   -0.1,   -0.0,   -0.3,   -0.1,    0.1,    0.0,    0.1,    0.1,   -0.5,  999.0,  999.0,  999.0,    5.5,  999.0,    5.3,    5.4,    5.3,    5.4,    5.5,    5.5,    5.5,    5.5,    5.5,    5.5,    5.5,    5.5,    5.5,    5.5,    5.6,    5.5,    5.4,    5.5,    5.5,    5.4,    5.5,    5.5,    5.4,    5.5,    5.4,    5.5,    5.5,    5.5,    5.5,    5.5,    5.5,    5.6,    5.5,    5.5,    5.5,    5.5,    5.5,    5.5
2000/12/06 10:40,    0.0,  999.0,   -0.0,    0.6,   -0.1,   -1.0,   -0.2,   -0.9,   -0.1,   -0.1,   -0.1,   -0.9,  999.0,   -2.8,    0.1,   -5.5,  999.0,   -5.4,   -0.1,    5.4,    1.8,   -5.5,   -5.5,   -1.9,   -1.8,    2.8,    5.6,   -2.7,   -1.8,   -0.0,    2.7,   -0.0,   -1.9,    0.0,   -0.0,   -5.5,   -0.0,   -0.0,   -1.9,   -1.8,   -0.1,   -1.9,   -0.1,   -1.8,    5.5,   -0.0,   -1.8,   -1.8,   -0.0,    0.1,    0.1,    0.0,   -5.4,   -0.1,   -5.5,   -0.1,   -5.5,   -0.0
2000/12/06 10:50,   -0.2,   -0.1,   -0.2,   -0.2,    0.0,   -0.0,   -0.0,   -0.1,   -0.1,   -0.2,   -1.3,   -1.0,   -1.4,    0.2,   -5.6,  999.0,   -0.0,  999.0,   -5.5,  999.0,   -5.4,  999.0,   -5.5,  999.0,   -0.1,   -0.0,   -0.0,   -3.7,    0.0,   -3.6,   -1.8,   -3.7,   -2.7,   -5.5,    0.0,   -5.5,   -1.8,   -5.6,  999.0,   -5.4,   -5.5,    0.1,   -2.8,   -3.6,   -1.9,   -2.7,   -3.7,   -5.5,   -5.4,   -5.5,   -1.8,   -5.5,   -0.0,   -2.8,   -0.0,   -5.5,   -0.1,   -5.5
2000/12/06 11:00,    0.4,    0.1,   -0.0,    0.4,    0.5,    0.3,    0.5,   -0.6,   -0.5,   -1.0,   -1.0,   -1.9,    0.1,    1.8,    1.0,    0.0,   -5.6,   -0.1,    5.6,  999.0,  999.0,  999.0,  999.0,   -5.7,   -5.5,   -5.5,   -5.6,   -5.5,   -5.6,   -5.6,   -5.6,   -5.5,   -5.4,   -5.6,   -5.5,   -5.5,   -5.4,   -5.5,   -5.5,   -5.4,   -5.6,   -5.5,   -5.6,   -5.5,   -5.5,   -5.5,   -5.5,   -5.3,   -5.5,   -5.5,   -5.5,   -5.4,   -5.5,   -5.6,   -5.5,   -5.5,   -5.5,   -5.5
2000/12/06 11:10,   -0.2,   -0.1,   -0.1,   -0.1,   -0.1,   -0.1,   -0.1,   -0.3,   -0.1,   -0.2,   -0.1,   -0.0,    0.2,    0.1,   -0.2,   -0.1,  999.0,  999.0,   -0.0,    0.0,    0.1,  999.0,  999.0,   -5.4,   -5.5,   -5.5,   -5.5,   -5.5,   -5.5,   -5.5,   -3.7,   -3.7,   -5.4,   -5.5,   -5.5,   -3.7,   -5.5,   -5.4,    0.0,   -5.5,   -1.8,  999.0,   -3.7,   -2.7,   -3.7,   -5.5,   -3.6,   -1.8,   -5.5,   -5.5,   -5.5,   -5.5,   -5.5,   -1.8,   -5.6,   -5.5,   -3.7,   -3.7
2000/12/06 11:20,    0.1,    0.2,   -0.3,    0.0,   -0.0,   -0.2,   -0.1,   -0.1,   -0.2,   -0.2,    0.1,    0.2,    0.0,    0.0,    0.0,  999.0,  999.0,    0.1,  999.0,   -0.1,  999.0,  999.0,  999.0,   -5.6,   -5.5,   -1.9,   -5.6,   -5.5,   -5.4,   -1.8,   -1.8,   -1.8,   -0.1,   -5.5,   -5.5,   -3.7,   -2.8,   -3.7,   -5.5,   -5.5,   -5.4,   -5.4,   -5.4,   -5.4,   -5.5,   -5.5,   -5.5,   -5.5,   -5.5,   -5.4,   -5.5,   -5.4,   -5.5,   -5.5,   -5.5,   -5.6,   -5.5,   -5.5
2000/12/06 11:30,   -0.0,    0.0,   -0.1,    0.0,   -0.3,   -0.1,   -0.1,   -0.3,   -0.1,   -0.1,   -0.0,   -0.0,   -0.1,   -0.0,  999.0,  999.0,  999.0,  999.0,  999.0,  999.0,  999.0,  999.0,  999.0,  999.0,   -5.5,   -5.5,   -5.5,   -5.4,   -5.5,   -5.6,   -5.5,   -5.5,   -5.5,   -5.6,   -5.6,   -5.5,   -5.5,   -5.4,   -5.4,   -5.5,   -5.5,   -5.5,   -5.5,   -5.5,   -5.6,   -5.5,   -5.5,   -5.6,   -5.6,   -5.5,   -5.5,   -5.5,   -5.5,   -5.5,   -5.5,   -5.4,   -5.5,   -5.5
2000/12/06 11:40,    0.0,   -0.2,   -0.2,   -0.1,   -0.0,   -0.0,   -0.0,   -0.2,   -0.1,   -0.1,    0.0,   -0.0,    0.1,    0.1,  999.0,  999.0,  999.0,  999.0,  999.0,  999.0,  999.0,   -5.5,   -5.6,   -5.5,   -5.5,   -5.4,   -5.5,   -5.5,   -5.5,   -5.5,   -5.4,   -5.5,   -5.6,   -5.4,   -5.4,   -5.5,   -5.5,   -5.5,   -5.5,   -5.5,   -5.5,   -5.5,   -5.5,   -5.5,   -5.5,   -5.5,   -5.4,   -5.5,   -5.5,   -5.5,   -5.5,   -5.6,   -5.5,   -5.5,   -5.5,   -5.5,   -5.5,   -5.5
2000/12/06 11:50,   -0.1,   -0.3,   -0.3,   -0.3,   -0.1,    0.0,    0.0,   -0.1,   -0.1,   -0.0,    0.1,   -0.0,   -0.0,    0.1,  999.0,  999.0,    0.0,   -0.1,   -0.0,    0.1,    5.6,    0.1,   -5.5,   -3.7,   -5.5,   -3.6,   -2.7,   -3.7,   -1.8,   -3.6,   -5.4,   -5.5,   -2.8,   -1.8,   -3.7,   -3.7,   -5.4,   -3.7,    0.0,   -1.8,   -2.8,   -3.7,   -2.8,   -5.5,   -2.7,    0.0,   -5.5,   -1.8,    0.0,   -1.8,   -2.7,   -2.7,   -0.0,   -5.5,   -5.6,   -0.1,   -2.7,   -1.9
2000/12/06 12:00,    0.0,    0.0,    0.1,   -0.1,   -0.2,    0.2,    0.1,   -0.1,   -0.1,   -0.1,   -0.7,   -0.3,    0.1,    0.1,    0.0,   -0.0,   -0.1,   -0.1,  999.0,  999.0,  999.0,   -5.5,   -5.5,   -5.5,   -5.5,   -5.6,   -5.6,   -5.5,   -5.5,   -5.5,   -5.5,   -5.4,   -5.5,   -5.5,  999.0,  999.0,   -0.0,   -5.5,   -0.0,   -5.5,   -2.8,   -0.0,   -2.7,   -5.5,   -5.6,   -2.8,   -5.6,   -5.5,   -5.5,    0.0,   -2.8,    0.0,    5.5,   -5.4,   -0.1,   -0.0,   -2.8,   -5.4
2000/12/06 12:10,   -0.3,    0.2,   -0.3,   -0.1,    0.2,    0.2,    0.0,   -0.1,   -0.3,   -0.2,   -0.1,   -0.1,   -0.1,   -0.2,   -0.1,   -0.0,    0.1,    0.0,  999.0,    0.3,   -2.7,   -5.6,   -5.5,   -5.5,   -3.7,   -5.5,   -1.9,   -1.9,    0.1,   -2.7,   -0.0,  999.0,    5.5,    5.6,    0.6,    5.5,  999.0,  999.0,    3.1,    5.5,    5.5,    5.4,    5.5,    5.5,    5.5,    5.5,    5.5,    5.5,    5.6,    5.4,    5.5,    5.4,    5.5,    5.5,    5.5,    5.5,    5.5,    5.5
2000/12/06 12:20,   -0.3,   -0.2,   -0.0,    0.0,    0.0,    0.0,    0.0,    0.1,    0.0,   -0.2,    0.9,    1.8,    0.2,   -0.1,    0.1,    1.0,    3.0,    0.4,    0.3,    1.5,    0.1,  999.0,  999.0,  999.0,    5.5,  999.0,    5.4,    5.5,    5.4,  999.0,    5.6,    5.5,    5.5,    5.5,    5.5,    5.6,    5.5,    5.5,    5.5,    5.5,    5.5,    5.5,    5.5,    5.4,    5.5,    5.5,    5.5,    5.5,    5.5,    5.5,    5.5,    5.5,    5.5,    5.5,    5.6,    3.6,    3.7,    0.1
2000/12/06 12:30,   -0.1,    0.0,   -0.1,   -0.1,   -0.1,    0.0,   -0.0,   -0.2,   -0.1,   -0.1,   -0.0,    0.3,   -0.0,   -0.2,   -0.3,   -0.2,   -0.2,   -2.9,   -5.5,   -5.5,    2.7,   -5.5,   -5.5,    5.4,    2.7,    2.7,   -1.8,   -3.6,   -3.6,   -2.7,   -1.8,   -0.0,   -2.8,   -5.5,   -1.8,    0.1,    5.5,    0.1,    5.5,    5.5,   -2.7,   -5.5,    5.4,   -1.9,   -0.1,    0.0,   -0.0,    0.0,   -0.0,   -1.8,   -5.5,   -0.0,    0.0,    0.0,    0.2,    1.9,    0.0,    5.4
2000/12/06 12:40,  999.0,  999.0,    0.1,   -0.2,    0.7,    0.8,    0.8,    0.7,    1.4,    0.1,    1.4,    0.1,    5.5,   -0.4,   -0.1,   -0.2,   -0.2,   -0.3,  999.0,  999.0,  999.0,  999.0,  999.0,  999.0,  999.0,   -5.4,   -5.6,   -5.5,   -5.5,   -5.5,   -5.5,   -5.5,  999.0,   -5.5,   -5.6,   -5.4,   -5.6,   -5.5,   -5.5,   -5.6,   -5.5,   -5.5,   -5.5,   -5.5,   -5.6,   -5.4,   -5.5,   -5.6,   -5.5,   -5.5,   -5.5,   -5.5,   -5.5,   -5.5,   -5.5,   -5.4,   -5.5,   -5.4
2000/12/06 12:50,   -0.0,  999.0,   -0.1,   -0.1,   -0.3,   -0.1,   -0.1,   -0.3,   -0.2,    0.0,   -0.1,   -0.1,   -0.1,   -0.1,   -0.2,   -0.0,    0.0,   -0.0,    0.5,  999.0,   -0.0,  999.0,  999.0,    5.4,    5.5,   -5.6,   -1.8,   -1.9,   -5.4,   -5.6,   -5.5,   -5.6,   -2.7,   -5.5,   -3.7,   -5.5,   -3.7,   -3.7,   -3.6,   -5.5,   -2.8,   -5.6,   -5.5,   -3.7,   -5.5,   -1.8,   -5.5,   -0.1,   -5.5,   -3.7,   -1.9,   -1.9,   -5.5,   -5.4,   -3.7,   -1.9,   -5.5,   -5.5
2000/12/06 13:00,  999.0,  999.0,    0.0,   -0.3,   -0.3,   -0.1,   -0.0,    0.0,    0.1,    0.1,    0.1,    0.1,    0.1,    0.1,    0.4,    0.4,    0.3,    0.2,    0.3,    0.1,  999.0,   -0.0,  999.0,    0.1,  999.0,  999.0,   -5.5,   -5.5,    5.5,  999.0,   -0.0,    5.6,   -2.7,   -5.5,   -5.4,   -3.6,   -1.8,   -5.5,   -5.7,   -1.9,   -2.8,   -3.6,   -3.7,   -3.7,   -1.8,   -5.5,   -5.5,   -5.5,    0.0,   -5.6,   -5.7,   -3.7,    0.0,   -5.5,   -5.4,   -1.8,   -1.8,   -3.7
2000/12/06 13:10,  999.0,  999.0,    0.1,    0.0,   -0.0,   -0.1,   -0.1,   -0.4,   -0.3,    0.0,   -0.3,   -0.1,    0.0,    0.1,    0.1,    0.2,   -5.4,   -1.5,   -1.3,   -1.8,   -5.5,   -5.5,  999.0,   -5.5,   -5.4,   -5.5,   -5.3,   -5.5,  999.0,   -5.5,   -5.5,   -5.5,   -5.5,   -5.6,   -5.5,   -5.6,  999.0,   -5.5,   -4.1,   -5.5,   -5.5,   -5.5,   -5.5,   -5.5,   -5.5,   -5.5,   -0.0,   -5.5,   -3.7,   -5.5,   -5.5,   -3.6,   -1.8,   -5.6,   -5.5,   -3.7,   -3.6,   -5.5
2000/12/06 13:20,   -0.1,  999.0,    0.1,   -0.1,    0.2,    0.1,    0.1,   -0.2,   -0.1,   -0.1,   -0.1,    0.0,    0.1,    0.1,    0.0,   -0.1,    0.1,  999.0,   -0.2,   -0.1,    5.5,  999.0,  999.0,    5.4,  999.0,  999.0,   -0.0,   -2.8,   -5.5,   -2.7,   -1.9,   -3.7,   -1.8,   -5.5,   -5.5,   -5.5,   -5.5,   -5.5,   -5.5,   -5.5,   -5.4,   -5.5,   -5.6,   -5.5,   -5.5,   -5.6,   -5.5,   -5.5,   -5.6,   -5.5,   -5.6,   -5.5,   -5.6,   -5.5,   -3.7,   -3.7,   -2.8,   -1.8
2000/12/06 13:30,    0.0,  999.0,   -0.2,   -0.5,   -0.1,   -0.0,    0.0,   -0.2,   -0.4,   -0.6,   -0.1,   -0.0,    0.4,    0.3,    0.2,    0.2,    0.2,  999.0,    0.1,    0.2,  999.0,  999.0,   -5.6,  999.0,   -5.3,   -5.4,   -5.6,   -2.8,    0.1,   -2.8,   -3.7,   -2.7,   -1.9,   -2.8,   -5.5,   -3.6,   -2.7,   -1.8,   -5.6,   -5.6,   -5.5,   -5.5,    5.4,   -5.5,   -1.9,   -5.5,   -3.7,   -2.8,   -3.7,    0.0,   -5.6,   -1.9,   -5.6,   -0.1,    0.0,    5.5,   -0.0,   -1.8
2000/12/06 13:40,   -0.1,  999.0,   -0.4,   -0.6,   -0.1,   -0.1,   -0.1,   -0.3,   -0.3,   -0.2,   -0.1,   -0.1,    0.0,    0.1,    0.0,    0.3,    0.2,   -5.5,   -1.7,    0.2,   -5.5,  999.0,   -5.6,   -5.5,   -5.5,  999.0,   -5.5,   -5.5,   -5.5,   -5.5,   -5.6,   -5.5,   -5.4,   -5.5,   -5.5,   -5.6,   -5.5,   -5.5,   -5.5,   -5.5,   -5.5,   -5.5,   -5.5,   -5.6,   -5.5,   -5.5,   -5.5,   -5.5,   -5.5,   -5.6,   -5.6,   -5.6,   -5.5,   -5.6,   -5.6,  999.0,   -5.5,   -5.6
2000/12/06 13:50,  999.0,  999.0,   -0.1,    0.0,    0.0,   -0.1,   -0.1,   -0.4,   -0.2,   -0.0,    0.1,    0.1,   -0.1,   -0.0,    0.4,    0.3,    0.3,    0.1,    0.2,  999.0,  999.0,  999.0,  999.0,  999.0,  999.0,  999.0,  999.0,   -5.6,   -5.5,   -5.6,   -5.5,   -5.5,   -5.5,   -5.5,   -5.5,   -5.5,   -5.5,   -5.5,   -5.5,   -5.5,   -5.5,   -5.5,   -5.5,   -5.6,   -5.5,   -5.5,   -5.5,   -5.5,   -5.5,   -5.5,   -5.5,   -5.5,   -5.4,   -5.6,   -5.5,   -5.5,   -5.5,   -5.5
2000/12/06 14:00,  999.0,  999.0,   -0.3,    0.0,    0.0,    0.0,   -0.1,   -0.2,   -0.3,   -0.3,   -0.3,   -0.3,   -0.2,   -0.6,    0.0,   -0.1,    0.1,  999.0,  999.0,  999.0,  999.0,  999.0,  999.0,  999.0,  999.0,  999.0,   -5.5,   -5.5,   -5.5,   -5.6,   -5.5,   -5.5,   -5.5,   -5.5,   -5.5,   -5.6,   -5.5,   -5.6,   -5.5,   -5.5,   -5.5,   -5.5,   -5.6,   -5.5,   -5.4,   -5.5,   -5.5,   -5.5,   -5.5,   -5.5,   -5.5,   -5.5,   -5.5,   -5.5,   -5.5,   -5.5,   -5.4,   -5.5
2000/12/06 14:10,    0.9,    0.0,   -0.2,   -0.4,   -0.2,   -0.4,   -0.3,   -0.3,   -0.2,   -0.1,    0.0,   -0.1,    0.1,    0.2,   -0.1,   -0.1,   -5.5,   -5.5,  999.0,   -2.7,   -5.4,    5.5,    0.0,   -0.0,    0.1,   -1.9,    0.0,    0.0,   -5.5,   -1.9,   -2.7,    1.8,    1.9,    1.8,    3.7,    0.0,    5.5,    0.0,    1.8,    3.7,   -0.0,    2.8,    0.1,   -5.5,    0.0,   -5.6,   -5.5,    0.0,    0.1,    0.0,    0.0,    0.0,    2.7,    5.6,    5.6,    2.7,   -2.7,   -0.0
2000/12/06 14:20,   -0.2,   -0.7,   -0.4,   -0.6,   -0.2,   -0.3,   -0.4,   -0.6,   -0.3,   -0.0,    0.2,    0.3,    0.1,    0.3,    0.5,    0.3,    0.2,    0.3,    0.1,  999.0,  999.0,  999.0,    5.6,    3.7,    5.5,    3.6,    2.8,    3.7,    1.8,    3.7,    3.6,    5.5,    1.9,    1.9,    5.5,   -0.0,    3.7,    2.8,    1.9,   -0.1,    5.5,    2.7,    5.5,   -0.0,    5.5,    1.9,    3.6,    0.0,    5.6,    3.7,    3.7,    2.8,   -0.0,    5.5,   -1.8,    1.8,    3.6,    1.8
2000/12/06 14:30,    0.0,    0.1,   -0.0,   -0.0,   -0.1,   -0.1,   -0.2,   -0.4,   -0.0,   -0.0,    0.1,    0.2,   -0.0,   -0.0,    0.0,    0.3,    0.1,   -0.0,  999.0,  999.0,  999.0,  999.0,    5.4,    5.6,    5.6,    5.6,    5.4,    5.5,    5.5,    5.5,    5.5,    5.5,    5.5,    5.5,    5.5,    5.5,    5.5,    5.5,    5.5,    5.6,    5.5,    5.5,    5.5,    5.6,    5.5,    5.6,    5.5,    5.5,    5.5,    5.5,    5.6,    5.5,    5.6,    5.5,    5.5,    5.5,    5.5,    5.5
2000/12/06 14:40,   -0.1,    0.0,   -0.2,   -0.1,   -0.1,   -0.1,   -0.3,   -0.3,   -0.3,   -0.1,   -0.1,    0.1,   -0.1,    0.3,    0.2,    0.4,    0.1,   -0.0,    0.0,   -0.1,  999.0,  999.0,  999.0,  999.0,    5.4,    5.4,    5.6,    5.5,    5.5,    5.5,    5.5,    5.5,    5.5,    5.5,    5.5,    5.5,  999.0,    5.5,    5.5,    5.5,    3.7,    5.5,    5.5,    0.0,   -0.0,    2.7,    5.5,    1.8,    5.6,    2.8,    2.7,    5.5,    2.7,    3.0,  999.0,    1.8,    1.8,    0.0
2000/12/06 14:50,   -0.1,   -0.1,   -0.2,   -0.1,   -0.1,   -0.0,   -0.1,   -0.5,   -0.2,   -0.1,   -0.1,   -0.2,    0.1,    0.1,    0.3,    0.4,    0.1,    0.2,    0.1,    0.0,    0.1,    0.0,  999.0,  999.0,  999.0,  999.0,  999.0,  999.0,   -5.4,   -5.6,  999.0,   -5.6,   -5.7,   -5.5,   -5.5,   -5.5,   -5.5,   -5.5,   -5.5,   -5.5,   -5.5,   -5.5,   -5.5,   -5.5,   -5.5,   -5.5,   -5.5,   -5.5,   -5.5,   -5.5,   -5.5,   -5.5,   -5.5,   -5.5,   -5.6,   -5.5,   -5.6,   -5.5
2000/12/06 15:00,   -0.2,   -0.5,   -0.1,   -0.1,   -0.1,   -0.1,   -0.3,   -0.5,   -0.3,   -0.3,   -0.2,   -0.2,   -0.5,   -0.1,   -0.2,   -0.1,   -0.0,    0.2,    0.0,   -0.0,   -0.1,    0.2,  999.0,  999.0,  999.0,  999.0,  999.0,  999.0,  999.0,   -5.6,   -1.9,   -5.5,  999.0,   -3.7,   -5.5,   -5.5,   -5.5,   -5.5,   -5.5,   -5.6,    0.0,   -5.6,   -5.6,   -3.7,   -1.8,   -0.1,   -5.5,   -1.8,   -5.5,  999.0,   -1.8,   -3.7,   -0.0,   -5.5,   -5.5,   -1.7,   -3.8,   -5.5
2000/12/06 15:10,    0.0,    0.0,   -0.1,   -0.1,   -0.1,    0.1,   -0.1,   -0.3,   -0.4,   -0.4,   -0.2,   -0.0,   -0.1,   -0.0,    0.2,   -1.7,    0.3,   -1.6,   -1.7,   -1.6,  999.0,  999.0,   -0.0,    3.6,    2.8,    3.7,    1.9,   -0.0,    0.0,    0.0,    2.8,   -0.0,   -0.0,   -0.0,    1.8,    3.7,   -0.0,    0.0,   -0.0,   -1.8,    1.8,   -2.8,    3.7,    5.5,   -2.7,    3.7,    3.7,   -0.0,    2.8,    0.0,   -1.8,   -0.0,    3.7,    5.5,    2.8,    5.5,    1.8,    1.8
2000/12/06 15:20,    0.0,   -0.1,   -0.0,    0.1,    0.0,    0.1,    0.0,   -0.2,   -0.5,   -0.4,   -0.6,   -0.4,   -0.3,   -0.2,   -0.1,   -0.2,   -0.1,   -0.1,    0.1,  999.0,  999.0,  999.0,    5.5,    5.4,    5.5,    5.6,    5.5,    5.5,    5.5,  999.0,    5.5,  999.0,    5.5,    5.4,    5.5,    5.5,   -0.0,   -5.5,    0.1,    0.1,    0.1,   -1.8,   -1.8,   -5.5,   -5.5,   -1.9,   -3.7,   -3.7,   -1.9,   -1.8,   -3.6,   -1.8,   -3.6,   -3.6,   -1.8,   -5.5,    0.0,   -1.8
2000/12/06 15:30,   -0.6,   -0.1,   -0.0,   -0.0,   -0.1,    0.0,   -0.1,   -0.2,   -0.2,   -0.1,   -0.1,   -0.1,    0.1,    0.0,    0.0,    0.1,    0.0,    0.0,   -0.0,    0.0,   -0.0,    5.5,    5.6,  999.0,  999.0,  999.0,    5.4,  999.0,  999.0,  999.0,   -5.5,  999.0,   -5.6,   -5.5,   -5.4,   -5.5,   -5.5,   -5.4,   -5.7,   -5.6,  999.0,   -5.6,   -5.6,   -5.6,   -5.4,  999.0,   -5.5,   -5.5,   -5.6,   -5.5,   -5.4,   -5.5,   -5.5,   -5.7,   -5.6,   -5.5,   -5.5,   -5.5
2000/12/06 15:40,   -0.2,   -0.0,   -0.0,    0.0,    0.0,    0.2,    0.0,    0.0,    0.1,    0.1,    0.1,   -0.0,    0.2,   -0.0,   -0.1,    0.4,    0.3,    0.4,    0.4,    0.2,    0.3,  999.0,    5.5,    5.4,    5.5,    5.5,    5.4,    5.6,    5.5,    5.5,    5.4,    5.5,    5.5,    5.5,    5.5,    5.6,    5.5,    5.5,    5.5,    5.5,    5.5,    5.5,    5.5,    5.5,    5.6,    5.5,    5.4,    5.5,    5.5,    5.6,    5.5,    5.5,    5.5,    5.5,    5.5,    5.5,    5.5,    5.6
2000/12/06 15:50,   -0.0,    0.1,   -0.1,    0.0,    0.0,    0.1,   -0.1,    0.0,    0.2,    0.2,    0.3,    0.2,    0.3,    0.2,  999.0,  999.0,  999.0,  999.0,  999.0,  999.0,  999.0,  999.0,    5.6,    5.6,    5.5,    5.5,    5.6,    5.5,    5.6,    5.6,    5.5,    5.5,    5.5,    5.6,    5.5,    5.5,    5.6,    5.6,    5.5,    5.5,    5.5,    5.5,    5.5,    5.5,    5.5,    5.6,    5.5,    5.5,    5.6,    5.5,    5.5,    5.6,    5.5,    5.5,    5.5,    5.5,    5.5,    5.5
2000/12/06 16:00,    0.1,   -0.1,   -0.0,   -0.0,   -0.1,   -0.0,   -0.2,   -0.2,   -0.1,    0.0,    0.2,    0.3,    0.3,    0.4,    0.4,    0.4,  999.0,  999.0,  999.0,  999.0,  999.0,  999.0,    5.5,    5.6,    5.5,    5.5,    2.8,    1.9,    5.5,    3.7,    1.8,    5.6,    2.8,    5.5,    3.7,    2.7,    5.6,    1.9,    5.5,    3.6,    0.0,    5.5,    3.7,    3.7,    3.7,    2.7,    3.6,    3.7,    3.7,    5.5,    5.5,    2.8,    5.5,    5.6,    3.7,    5.5,   -0.0,    5.5
2000/12/06 16:10,    0.0,   -0.1,   -0.1,   -0.1,   -0.0,    0.1,    0.1,    0.1,    0.0,    0.1,    0.2,    0.2,    0.2,   -0.0,   -0.0,  999.0,  999.0,   -0.5,  999.0,    5.5,    5.5,    3.6,    5.5,    5.5,    5.5,    5.3,    5.5,    5.5,    5.5,    5.5,    5.6,    5.5,    5.6,    5.5,    5.5,    5.5,    5.5,    5.5,    5.5,    5.5,    5.6,    5.5,    5.5,    5.6,    5.5,    5.5,    5.6,    5.5,    3.7,    1.8,    3.7,    3.6,    3.7,    1.8,    1.8,    1.8,    1.9,    3.7
2000/12/06 16:20,    0.0,   -0.0,   -0.1,   -0.0,   -0.0,   -0.0,    0.2,    0.1,    0.2,    0.1,    0.1,    0.3,    0.2,    0.1,    0.3,  999.0,  999.0,  999.0,  999.0,  999.0,    5.4,    5.6,    5.6,    5.5,    5.5,    5.5,    5.3,    5.5,    5.6,    5.5,    5.6,    5.5,    5.5,    5.5,    5.5,    5.5,    5.6,    5.5,    5.6,    5.5,    5.6,    5.6,    5.5,    5.5,    5.5,    5.6,    5.6,    5.4,    5.6,    5.5,    5.5,    5.5,    5.5,    5.5,    5.5,    5.5,    5.5,    5.5
2000/12/06 16:30,    0.3,   -0.0,    0.0,    0.1,    0.2,    0.3,    0.3,    0.3,    0.3,    0.4,    0.4,    0.4,    0.2,    1.9,  999.0,  999.0,    5.5,    5.5,    5.5,    5.5,    5.5,   -5.5,    2.7,    2.7,    5.5,    2.7,    2.8,    3.7,    1.9,    5.5,    5.5,    1.8,    1.8,    5.5,   -0.0,    1.8,    1.8,    1.8,    1.8,    1.8,    1.8,   -0.0,    1.8,    1.9,    1.9,    1.8,    1.8,    1.8,    1.8,    1.8,    1.9,    1.8,    1.9,    1.8,   -0.1,   -0.0,    1.8,    1.9
2000/12/06 16:40,    0.1,    0.3,    0.1,    0.0,    0.0,    0.1,    0.0,    0.1,    0.2,    0.0,    0.1,   -0.2,    0.3,    0.0,    0.1,   -2.9,   -5.5,   -0.5,   -3.0,   -2.9,   -2.9,   -5.7,    0.0,    5.5,    5.5,    1.9,   -5.4,    1.9,   -0.0,    1.8,    0.0,   -0.0,    1.8,   -2.7,   -1.8,   -0.0,   -0.0,    0.0,   -0.0,   -1.8,    2.8,    0.0,    1.8,   -0.1,    0.0,   -5.6,   -2.9,   -0.0,   -0.0,    2.7,   -2.8,   -0.1,    5.5,    0.0,    5.6,   -1.8,    0.0,    2.8
2000/12/06 16:50,    0.0,    0.2,   -0.1,   -0.1,    0.0,    0.1,   -0.0,   -0.0,    0.1,   -0.1,   -0.1,   -0.1,   -0.0,   -0.0,  999.0,    0.1,   -0.0,    0.0,  999.0,  999.0,  999.0,   -5.6,    5.5,    2.7,    5.6,    1.8,    5.5,    5.5,    2.7,    0.0,    1.9,    5.6,    3.7,    5.5,    5.5,    3.6,    1.9,    2.8,    5.5,    3.7,    5.5,    1.9,    3.7,    5.6,    1.9,    2.7,    1.8,    5.5,    5.5,    5.5,    1.8,    1.9,    2.7,    5.6,    3.7,    2.7,    3.7,    5.5
2000/12/06 17:00,    0.3,    0.1,    0.0,    0.1,    0.1,    0.2,    0.3,    0.5,    0.1,   -0.0,    0.1,   -0.0,   -0.0,   -0.0,   -0.1,   -0.1,    0.1,   -0.1,    0.0,  999.0,   -0.2,    0.1,    5.6,    5.5,    2.8,   -0.0,   -1.9,   -3.7,   -1.8,   -2.8,   -3.7,   -5.5,   -3.7,   -2.8,   -1.9,   -2.8,    0.0,   -1.9,   -5.6,   -2.7,   -0.0,   -2.8,   -1.9,   -5.5,   -5.5,   -2.8,   -5.5,   -2.8,   -5.5,   -5.6,   -0.0,   -3.7,   -5.6,   -0.0,   -3.7,    0.0,   -2.8,   -2.7
2000/12/06 17:10,    0.1,    0.0,   -0.1,    0.0,    0.2,    0.2,    0.1,    0.1,    0.0,   -0.1,    0.1,    0.0,    0.3,    0.1,    0.2,    0.2,    0.0,    0.2,    0.1,    0.0,    0.0,   -0.0,  999.0,   -5.6,   -0.1,    0.1,  999.0,    5.6,   -2.7,   -5.6,   -5.5,   -5.6,   -5.5,   -0.0,   -5.6,   -5.6,   -5.6,   -5.7,   -5.6,   -5.6,   -5.5,   -5.5,   -5.5,   -5.6,   -5.6,   -5.6,   -5.6,   -5.5,   -5.5,   -1.9,   -2.7,   -5.6,   -5.6,   -0.0,   -1.9,   -5.5,   -5.5,   -5.5
2000/12/06 17:20,   -0.0,    0.1,    0.0,    0.1,    0.1,    0.1,    0.1,    0.1,    0.0,   -0.1,   -0.1,   -0.0,    0.0,    0.0,    0.0,  999.0,  999.0,    0.4,    0.2,    0.1,  999.0,    0.1,    0.0,  999.0,  999.0,  999.0,  999.0,  999.0,   -5.6,   -5.5,   -5.5,   -5.5,   -5.5,   -5.5,   -5.5,   -5.5,   -5.4,   -5.5,   -5.5,   -5.5,   -5.6,   -5.5,   -5.5,   -5.6,   -5.5,   -5.5,   -5.5,   -5.5,   -5.5,   -5.5,  999.0,   -5.6,   -5.6,  999.0,   -5.6,   -5.5,   -5.5,   -5.5
2000/12/06 17:30,    0.1,   -0.0,    0.2,    0.2,    0.3,    0.1,    0.2,    0.2,    0.1,    0.1,   -0.1,   -0.1,    0.1,  999.0,  999.0,  999.0,    5.5,  999.0,    0.1,   -0.1,    0.0,    0.1,    5.6,    0.0,  999.0,   -1.8,   -5.5,    5.5,   -5.5,   -1.8,   -1.9,   -5.6,   -5.5,   -5.5,   -5.5,   -5.5,   -5.5,   -0.0,   -1.8,   -5.5,   -0.0,   -1.9,   -5.5,   -1.9,   -0.0,   -0.1,   -0.0,   -0.1,   -5.5,  999.0,    0.0,  999.0,   -0.0,    1.7,    1.9,    5.4,    1.8,    1.9
2000/12/06 17:40,   -0.0,    0.0,    0.5,    0.3,    0.4,    0.6,    0.1,    0.8,    0.0,    0.1,   -0.0,   -0.1,   -0.0,    0.1,    0.1,    0.2,    0.1,   -1.8,   -0.0,  999.0,   -1.8,  999.0,  999.0,  999.0,   -2.7,  999.0,   -5.5,   -4.1,   -5.4,  999.0,   -5.5,   -5.5,  999.0,  999.0,   -5.6,   -5.4,   -5.5,   -5.6,   -5.5,   -5.5,   -5.5,   -0.1,  999.0,   -5.5,    1.9,   -0.0,   -0.1,   -0.0,   -5.4,   -5.5,   -5.7,   -2.8,   -2.7,   -5.5,   -2.7,   -5.5,   -5.6,    1.9
2000/12/06 17:50,   -0.2,   -0.3,   -0.0,    0.1,    0.0,    0.1,   -0.1,   -0.0,   -0.1,    0.2,    0.2,    0.1,    0.2,    0.2,    0.0,  999.0,   -0.2,   -0.0,   -0.2,   -0.1,   -0.2,    0.1,  999.0,  999.0,  999.0,  999.0,  999.0,  999.0,  999.0,  999.0,  999.0,  999.0,   -5.6,   -5.5,   -5.5,   -5.5,   -5.5,   -5.6,   -5.5,   -5.5,   -5.5,   -5.4,   -5.5,   -5.5,   -5.4,   -5.5,   -5.5,   -5.4,   -5.5,   -5.5,   -5.5,   -5.5,   -5.6,   -5.5,   -1.8,    0.0,   -5.5,   -2.7
2000/12/06 18:00,    0.2,    0.2,    0.1,    0.1,    0.1,    0.1,    0.0,   -0.1,    0.1,    0.1,    0.2,    0.2,    0.2,    0.3,    0.1,   -0.1,   -0.3,   -0.1,   -0.2,    0.0,    0.0,    0.0,  999.0,  999.0,  999.0,  999.0,  999.0,  999.0,  999.0,  999.0,  999.0,  999.0,   -5.5,   -5.5,   -5.5,   -5.5,   -5.4,   -5.7,   -5.5,   -5.4,   -5.5,   -5.5,   -5.6,   -5.5,   -5.5,   -5.4,   -5.5,   -5.5,   -5.6,   -5.4,   -5.5,   -5.5,   -5.5,   -5.4,   -5.4,   -5.4,   -5.5,   -5.5
2000/12/06 18:10,    0.2,    0.3,    0.1,    0.2,   -0.0,    0.3,    0.2,    0.1,    0.0,    0.2,    0.1,    0.2,    0.1,    0.1,    0.2,    0.1,    0.2,   -0.1,   -0.0,    0.0,    0.0,   -0.0,  999.0,  999.0,  999.0,  999.0,  999.0,  999.0,  999.0,  999.0,  999.0,   -5.6,  999.0,   -5.5,   -5.4,   -5.4,   -5.5,   -5.4,   -5.5,   -5.5,   -5.5,   -5.5,   -5.5,   -5.4,   -5.6,   -5.6,   -5.5,   -5.5,   -5.5,   -5.5,   -5.4,   -5.5,   -5.4,   -5.5,   -5.4,   -5.3,   -5.5,   -5.6
2000/12/06 18:20,    0.1,    0.1,    0.2,    0.2,    0.1,    0.4,    0.2,    0.2,    0.3,    0.3,    0.4,   -0.0,    0.1,    0.2,    0.1,    0.2,  999.0,    0.1,    0.0,    0.0,   -0.0,   -0.1,  999.0,    0.1,  999.0,  999.0,  999.0,  999.0,  999.0,  999.0,  999.0,  999.0,  999.0,   -5.5,   -5.6,   -5.7,   -5.6,   -5.5,   -5.5,   -5.7,   -5.4,   -5.5,   -5.4,   -5.4,   -5.4,   -5.5,   -5.5,   -5.5,   -5.6,   -5.5,  999.0,   -5.6,   -5.5,   -5.5,   -5.5,   -5.6,   -5.5,   -5.5
2000/12/06 18:30,    0.2,    0.2,    0.4,    0.6,    0.4,    0.0,   -0.1,   -0.1,    0.3,    0.4,    0.3,    0.4,    0.2,    0.2,    0.3,    0.1,   -0.6,   -0.1,    0.0,    0.0,   -0.1,   -0.1,  999.0,  999.0,  999.0,  999.0,  999.0,  999.0,  999.0,  999.0,  999.0,  999.0,  999.0,  999.0,   -5.6,   -5.5,   -5.5,    0.4,   -5.5,   -5.6,   -2.5,   -5.6,  999.0,   -2.6,   -5.4,   -5.5,   -5.6,   -5.5,   -5.5,   -5.4,   -5.3,   -5.4,   -5.6,   -5.4,   -5.5,   -2.5,  999.0,   -3.6
2000/12/06 18:40,    0.7,   -0.0,    0.2,    0.3,    0.5,    0.2,    0.5,    0.2,    0.1,    0.0,    0.1,   -0.0,    0.1,    0.1,    0.3,   -0.4,   -0.0,   -0.2,   -0.0,   -0.0,  999.0,  999.0,  999.0,  999.0,  999.0,  999.0,  999.0,  999.0,  999.0,  999.0,  999.0,  999.0,  999.0,  999.0,   -5.5,   -5.4,   -5.6,   -5.6,   -5.4,   -5.5,   -5.4,   -5.6,   -5.6,   -5.6,   -5.6,   -5.5,   -5.4,   -5.5,   -5.5,   -5.6,   -5.4,   -5.4,   -5.4,  999.0,   -5.6,   -5.6,  999.0,   -5.5
2000/12/06 18:50,    0.2,    0.1,    0.4,    0.4,    0.8,    0.6,    1.1,    1.0,    0.5,   -0.3,    0.1,    0.2,    0.2,    0.0,    0.0,   -0.1,   -0.1,   -0.4,   -0.1,   -0.0,    0.5,   -0.5,   -0.1,  999.0,    1.2,  999.0,  999.0,  999.0,  999.0,  999.0,  999.0,   -5.5,  999.0,   -5.5,   -5.5,  999.0,  999.0,   -5.7,   -5.5,   -5.5,   -5.8,   -5.5,   -5.5,  999.0,   -5.5,  999.0,   -5.5,   -5.5,   -5.5,   -5.5,   -5.4,   -5.6,  999.0,   -5.4,   -5.5,   -5.5,   -5.6,   -5.6
2000/12/06 19:00,    0.2,    0.2,    0.2,    1.0,    0.5,   -0.0,   -0.3,   -0.3,    0.4,    0.4,   -0.0,    0.3,    0.6,    0.5,   -0.0,   -0.1,   -0.2,   -0.3,   -0.0,    0.1,  999.0,    0.1,    0.1,  999.0,  999.0,  999.0,  999.0,  999.0,  999.0,  999.0,  999.0,  999.0,  999.0,  999.0,   -5.6,   -5.6,   -5.5,   -5.4,   -3.0,   -5.6,   -5.6,   -5.6,   -5.4,   -5.4,  999.0,  999.0,   -5.6,   -5.5,   -5.4,   -5.5,   -5.6,   -5.3,  999.0,   -5.5,   -5.6,   -5.5,   -5.4,   -5.4
2000/12/06 19:10,    0.0,   -0.7,    0.2,   -0.3,    0.1,   -0.1,   -0.2,   -0.3,   -0.6,   -0.8,    0.2,    0.1,    0.6,    0.5,    0.0,    0.1,    0.1,    0.8,   -0.5,   -0.2,    0.1,  999.0,  999.0,  999.0,  999.0,    0.0,  999.0,  999.0,  999.0,  999.0,  999.0,    1.8,   -4.0,  999.0,  999.0,  999.0,   -5.5,   -5.4,   -5.4,   -1.7,   -5.5,   -5.4,   -5.4,   -5.4,   -5.6,   -5.5,  999.0,   -5.4,   -5.6,   -5.6,   -5.4,  999.0,  999.0,  999.0,   -0.1,   -5.5,   -5.5,   -5.5
2000/12/06 19:20,    0.1,    0.1,    0.3,   -0.1,    0.1,    0.1,   -0.0,   -0.4,    0.1,    0.1,   -0.0,   -0.1,    0.1,   -0.0,   -0.1,   -0.2,  999.0,  999.0,  999.0,    0.1,   -0.2,   -0.1,    0.2,  999.0,  999.0,  999.0,  999.0,  999.0,  999.0,  999.0,  999.0,  999.0,   -5.6,  999.0,  999.0,   -5.6,   -5.5,   -5.4,   -5.5,   -5.4,   -5.5,   -5.4,  999.0,   -5.5,   -5.5,   -5.5,  999.0,   -5.3,   -5.5,   -5.5,   -5.5,   -5.5,   -5.4,   -5.6,   -5.5,  999.0,  999.0,   -5.5
2000/12/06 19:30,    0.3,    0.3,   -0.2,    0.2,    0.1,    0.2,    0.1,    0.2,    0.1,   -0.1,   -0.0,    0.3,    0.1,    0.0,   -0.1,    0.2,  999.0,  999.0,  999.0,    0.0,   -0.1,    0.1,   -0.9,   -0.1,  999.0,  999.0,  999.0,  999.0,  999.0,  999.0,  999.0,   -5.8,   -5.5,   -5.8,  999.0,   -5.5,   -5.4,   -5.6,   -5.5,   -5.5,   -5.6,   -5.5,   -5.5,   -5.7,  999.0,   -5.5,   -5.5,   -5.5,   -5.5,   -5.6,   -5.5,   -5.5,   -5.4,   -5.5,   -5.5,   -5.5,   -5.6,   -5.5
2000/12/06 19:40,    0.0,    0.1,    0.0,    0.1,    0.0,   -0.0,    0.1,   -0.0,    0.0,    0.2,    0.1,    0.3,    0.3,    0.2,    0.1,    0.0,  999.0,   -0.1,   -0.1,   -0.1,   -0.1,  999.0,   -0.3,    0.1,  999.0,  999.0,  999.0,  999.0,  999.0,  999.0,  999.0,  999.0,   -5.4,   -5.6,   -5.6,   -5.4,   -5.4,   -5.6,   -5.5,   -5.5,   -5.5,  999.0,   -5.4,   -5.6,  999.0,   -5.6,   -5.5,   -5.4,   -5.4,   -5.6,   -5.4,   -5.5,   -5.6,   -5.6,   -5.6,   -5.5,   -5.4,   -5.4
2000/12/06 19:50,   -0.0,   -0.1,    0.0,   -0.0,    0.1,    0.1,   -0.1,    0.1,    0.1,    0.5,    0.1,    0.1,   -0.0,    0.5,    0.3,  999.0,  999.0,   -0.3,   -0.1,    0.0,   -0.1,  999.0,  999.0,  999.0,  999.0,  999.0,  999.0,  999.0,  999.0,  999.0,   -4.4,  999.0,  999.0,   -5.5,   -5.6,   -5.5,   -5.5,   -5.5,  999.0,   -5.6,   -5.4,   -5.6,   -5.5,   -5.4,  999.0,   -5.5,   -5.5,   -5.5,   -5.4,  999.0,   -5.5,   -5.4,  999.0,   -5.5,  999.0,   -5.5,   -5.6,   -5.5
2000/12/06 20:00,    0.1,    0.2,   -0.0,   -0.1,    0.4,    0.2,    0.1,    0.2,    0.2,    0.1,    0.2,    0.1,    0.1,    0.1,    0.1,   -0.1,   -0.1,    0.2,   -0.2,   -0.2,    0.6,    0.1,  999.0,  999.0,  999.0,  999.0,  999.0,  999.0,  999.0,  999.0,  999.0,   -5.5,  999.0,   -5.4,   -5.4,   -5.5,   -5.6,   -5.6,  999.0,   -5.6,   -5.5,   -5.5,   -5.5,   -5.4,   -5.5,   -0.1,   -1.8,   -5.4,   -2.7,    0.1,   -5.7,   -5.5,   -2.0,   -5.6,   -2.8,   -5.5,   -1.8,   -3.7
2000/12/06 20:10,    0.1,    0.2,    0.1,    0.0,    0.1,   -0.0,   -0.0,    0.0,    0.0,    0.0,   -0.1,   -0.0,   -0.1,   -0.1,    0.1,    0.1,  999.0,  999.0,  999.0,   -0.1,   -0.1,  999.0,   -1.3,   -0.5,   -0.5,  999.0,  999.0,  999.0,  999.0,  999.0,  999.0,  999.0,   -5.5,  999.0,   -5.4,   -5.5,   -5.5,   -5.5,   -5.5,   -5.4,   -5.5,   -5.5,  999.0,   -5.7,   -5.6,   -5.4,   -5.6,   -5.5,   -5.5,   -5.4,   -5.5,   -5.6,   -5.6,   -5.4,   -5.7,   -5.5,   -5.6,   -5.6
2000/12/06 20:20,    0.1,    0.1,    0.1,    0.0,    0.0,    0.2,   -0.0,   -0.0,   -0.0,   -0.1,    0.0,    0.3,    0.1,    0.1,    0.1,   -0.1,  999.0,  999.0,  999.0,  999.0,  999.0,  999.0,  999.0,  999.0,  999.0,  999.0,  999.0,   -5.6,   -5.5,   -5.5,   -5.4,   -5.5,  999.0,   -5.4,   -5.5,   -5.5,   -5.4,   -5.5,   -5.6,   -5.5,   -5.5,   -5.5,   -5.5,   -5.7,   -5.6,   -5.4,   -5.4,   -5.5,   -5.6,   -5.4,   -5.5,   -5.6,   -5.6,  999.0,   -5.5,   -5.4,   -5.5,   -5.5
2000/12/06 20:30,    0.2,    0.2,    0.1,   -0.3,    0.1,    0.1,    0.1,    0.1,    0.1,    0.0,   -0.1,   -0.1,   -0.1,   -0.1,   -0.0,   -0.0,  999.0,    0.0,   -0.2,  999.0,  999.0,  999.0,  999.0,  999.0,  999.0,  999.0,  999.0,  999.0,  999.0,   -5.5,   -5.4,   -5.5,   -5.6,   -5.5,  999.0,   -5.5,   -5.5,  999.0,   -5.6,   -5.6,   -5.4,   -5.4,  999.0,  999.0,  999.0,   -5.4,  999.0,  999.0,   -5.4,   -5.6,   -5.3,   -5.5,   -5.7,  999.0,  999.0,   -5.7,  999.0,  999.0
2000/12/06 20:40,    0.3,    0.4,    0.3,   -0.0,    0.0,    0.0,    0.0,   -0.1,   -0.4,    0.1,    0.2,    0.1,    0.1,    0.1,   -0.0,   -0.0,   -0.1,    0.1,  999.0,  999.0,  999.0,  999.0,  999.0,  999.0,  999.0,  999.0,  999.0,   -5.5,   -5.5,   -5.4,   -5.5,   -5.5,   -5.5,   -5.5,   -5.5,   -5.5,   -5.7,   -5.5,   -5.4,   -5.6,   -5.5,   -5.5,   -5.5,   -5.5,   -5.6,   -5.6,   -5.6,   -5.6,   -5.4,  999.0,   -5.5,   -5.4,   -5.5,   -5.5,   -5.6,   -5.6,   -5.5,   -5.5
2000/12/06 20:50,    0.4,    0.6,    0.3,    0.1,    0.3,    0.2,    0.1,    0.1,    0.6,   -0.0,    0.1,    0.1,    0.1,    0.0,    0.1,   -0.1,  999.0,  999.0,  999.0,   -1.2,  999.0,  999.0,  999.0,  999.0,  999.0,  999.0,  999.0,  999.0,  999.0,  999.0,   -5.6,   -5.6,   -5.4,   -5.5,   -5.5,   -5.6,   -5.6,  999.0,   -5.5,   -5.4,   -5.5,  999.0,   -5.6,   -5.5,   -5.5,   -5.5,   -5.6,   -5.5,   -5.5,   -5.5,   -5.6,   -5.4,   -5.4,   -5.5,   -5.5,   -5.3,   -5.4,   -5.5
2000/12/06 21:00,    0.1,    0.2,    0.3,    0.3,    0.3,    0.2,    0.0,    0.0,    0.1,    0.0,    0.1,    0.0,    0.1,    0.1,    0.1,   -0.2,  999.0,  999.0,  999.0,  999.0,  999.0,  999.0,  999.0,  999.0,  999.0,  999.0,  999.0,  999.0,  999.0,   -5.5,   -5.6,   -5.4,   -5.5,   -5.6,   -5.4,   -5.4,   -5.5,   -5.5,   -5.5,   -5.5,   -5.5,   -5.5,   -5.5,   -5.5,   -5.5,   -5.4,   -5.4,   -5.5,   -5.5,   -5.6,   -5.6,   -5.5,  999.0,   -5.5,  999.0,   -5.6,   -5.3,   -5.5
2000/12/06 21:10,    0.4,    0.3,    0.2,    0.2,    0.2,    0.3,    0.1,    0.1,    0.0,    0.0,    0.0,    0.1,    0.0,    0.0,    0.1,    0.1,  999.0,   -0.1,  999.0,  999.0,  999.0,  999.0,  999.0,  999.0,  999.0,  999.0,  999.0,   -5.4,   -5.6,   -5.5,   -5.4,   -5.4,   -5.4,   -5.4,   -5.5,   -5.5,   -5.5,   -5.4,   -5.5,   -5.3,   -5.5,   -5.5,   -5.6,   -5.5,   -5.5,   -5.5,   -5.5,   -5.5,   -5.5,   -5.4,   -5.4,   -5.5,   -5.4,   -5.4,   -5.6,   -5.6,   -5.4,   -5.6
2000/12/06 21:20,    0.2,    0.3,    0.3,    0.5,    0.4,    0.2,    0.3,    0.3,    0.2,    0.1,    0.2,    0.2,    0.1,    0.1,    0.1,  999.0,  999.0,   -0.1,  999.0,  999.0,  999.0,  999.0,  999.0,  999.0,  999.0,  999.0,  999.0,   -5.5,   -5.5,   -5.4,   -5.5,   -5.4,   -5.5,   -5.5,   -5.5,   -5.6,   -5.4,   -5.6,   -5.5,   -5.5,   -5.5,   -5.5,  999.0,   -5.5,   -5.5,   -5.6,   -5.5,   -5.5,   -5.5,   -5.6,   -5.6,   -5.5,   -5.4,   -5.6,   -5.5,  999.0,   -5.5,   -5.6
2000/12/06 21:30,    0.1,    0.3,    0.2,    0.3,    0.2,   -0.2,    0.1,    0.1,    0.0,   -0.0,   -0.1,   -0.0,    0.0,    0.1,    0.1,    0.0,   -0.1,    0.0,   -0.3,   -0.1,    0.0,   -0.0,  999.0,  999.0,    0.9,    1.1,  999.0,  999.0,  999.0,   -5.4,   -5.5,   -5.5,   -5.6,   -5.5,   -5.6,   -5.5,   -5.6,   -5.4,   -5.7,   -5.5,   -5.4,   -5.6,   -5.5,   -5.4,   -5.7,   -5.5,   -5.5,  999.0,   -5.5,   -5.4,  999.0,   -5.6,   -5.5,   -5.4,   -5.4,   -5.5,   -5.5,   -5.5
2000/12/06 21:40,    0.1,    0.2,    0.2,    0.3,    0.1,   -0.0,    0.0,    0.0,    0.0,    0.0,    0.1,    0.0,   -0.0,   -0.1,   -0.0,    0.1,    0.1,   -0.0,  999.0,   -0.0,   -0.2,   -0.2,  999.0,  999.0,  999.0,  999.0,  999.0,  999.0,   -5.5,  999.0,  999.0,   -5.5,  999.0,   -5.5,   -5.5,  999.0,   -5.5,   -5.5,   -5.6,   -5.5,   -5.5,  999.0,   -5.6,   -5.5,   -5.4,   -5.6,   -5.6,   -5.4,   -5.4,   -5.4,   -5.5,   -5.6,   -5.4,   -5.5,   -5.5,   -5.5,   -5.6,   -5.5
2000/12/06 21:50,    0.0,    0.1,    0.1,    0.1,   -0.0,   -0.1,   -0.0,    0.0,    0.0,    0.5,    0.1,    0.0,    0.1,    0.1,    0.0,   -0.1,  999.0,   -0.1,   -0.2,   -0.3,   -0.3,   -0.4,   -0.3,  999.0,  999.0,  999.0,  999.0,  999.0,   -5.4,   -5.4,   -5.5,  999.0,  999.0,   -5.6,   -5.6,   -5.6,   -5.5,   -5.5,   -5.5,   -5.3,   -5.6,   -5.5,  999.0,   -5.6,   -5.5,  999.0,   -5.6,   -5.6,   -5.6,  999.0,   -5.4,   -5.5,   -5.6,   -5.5,   -5.5,  999.0,   -5.4,   -5.4
2000/12/06 22:00,    0.1,    0.2,    0.1,    0.2,    0.2,    0.0,    0.3,    0.3,    0.3,    0.2,    0.3,    0.3,    0.2,    0.1,    0.1,    0.0,   -0.9,   -0.0,    0.1,  999.0,  999.0,  999.0,  999.0,  999.0,  999.0,  999.0,  999.0,  999.0,  999.0,  999.0,   -5.5,   -5.5,   -5.4,   -5.7,   -5.5,   -5.5,   -5.5,   -5.5,   -5.3,   -5.5,   -5.4,   -5.6,   -5.5,   -5.5,   -5.4,   -5.4,   -5.3,   -5.7,   -5.5,   -5.5,   -5.4,   -5.4,   -5.6,   -5.5,   -5.5,   -5.5,   -5.5,   -5.6
2000/12/06 22:10,    0.1,    0.1,    0.1,    0.1,   -0.0,   -0.0,   -0.1,    0.1,    0.1,    0.1,    0.1,    0.1,   -0.1,   -0.0,    0.2,    0.1,   -0.1,   -0.0,  999.0,  999.0,  999.0,  999.0,  999.0,  999.0,  999.0,  999.0,  999.0,  999.0,  999.0,  999.0,  999.0,  999.0,   -5.5,   -5.5,   -5.4,   -5.5,   -5.4,   -5.5,  999.0,   -5.5,   -5.4,   -5.7,   -5.3,   -5.5,   -5.5,  999.0,   -5.5,   -5.5,   -5.6,   -5.6,   -5.5,   -5.5,   -5.5,   -5.6,   -5.5,   -5.4,   -5.3,   -5.6
2000/12/06 22:20,    0.2,   -0.0,   -0.0,    0.1,   -0.0,   -0.1,    0.1,    0.3,    0.3,    0.1,    0.1,   -0.1,    0.0,   -0.3,    0.0,    0.0,  999.0,    0.1,  999.0,  999.0,  999.0,  999.0,  999.0,  999.0,  999.0,  999.0,  999.0,  999.0,  999.0,  999.0,  999.0,    5.6,  999.0,  999.0,   -5.4,   -5.4,   -5.5,  999.0,   -5.5,   -5.5,   -5.5,   -5.5,   -5.4,   -5.6,    5.6,   -5.5,   -5.6,   -5.5,   -5.4,   -5.5,   -5.4,   -0.0,   -5.6,   -5.5,   -1.8,   -0.0,   -5.5,   -5.6
2000/12/06 22:30,    0.0,    0.0,    0.2,    0.2,   -0.0,   -0.1,    0.2,    0.2,    0.2,    0.1,    0.0,    0.0,    0.1,   -0.1,   -0.0,   -0.0,    0.0,   -0.1,   -0.3,  999.0,  999.0,  999.0,  999.0,  999.0,  999.0,  999.0,  999.0,  999.0,  999.0,  999.0,  999.0,  999.0,  999.0,   -5.4,  999.0,   -5.5,   -5.6,   -5.5,   -5.4,  999.0,   -5.5,   -5.5,  999.0,  999.0,   -5.6,  999.0,   -5.5,   -5.4,   -5.3,   -5.5,  999.0,   -5.4,   -5.5,   -5.5,   -5.5,   -5.5,   -5.5,   -5.6
2000/12/06 22:40,    0.3,   -0.1,    0.2,   -0.0,    0.1,    0.0,    0.2,    0.2,    0.3,   -0.1,    0.0,    0.2,   -0.1,   -0.3,    0.2,    0.0,   -0.1,   -0.0,    0.0,    0.0,  999.0,    0.6,  999.0,  999.0,  999.0,  999.0,  999.0,  999.0,  999.0,  999.0,  999.0,  999.0,  999.0,  999.0,  999.0,  999.0,  999.0,  999.0,  999.0,  999.0,  999.0,  999.0,  999.0,   -0.1,  999.0,  999.0,  999.0,  999.0,  999.0,  999.0,  999.0,  999.0,  999.0,  999.0,  999.0,  999.0,  999.0,    0.1
2000/12/06 22:50,   -0.1,   -0.1,    0.1,    0.1,    0.2,    0.1,    0.3,    0.1,   -0.1,    0.1,    0.1,    0.1,    0.1,  999.0,    0.0,   -0.1,  999.0,  999.0,  999.0,    0.1,   -0.1,    0.0,    0.5,   -0.0,  999.0,  999.0,  999.0,  999.0,  999.0,  999.0,  999.0,   -0.1,  999.0,  999.0,  999.0,  999.0,  999.0,  999.0,  999.0,  999.0,  999.0,  999.0,  999.0,  999.0,  999.0,  999.0,  999.0,  999.0,  999.0,  999.0,  999.0,    0.1,    0.1,  999.0,  999.0,   -0.1,  999.0,    0.1
2000/12/06 23:00,    0.1,   -0.1,    0.4,    0.2,    0.1,    0.0,    0.1,    0.3,    0.3,    0.3,    0.3,    0.2,    0.0,  999.0,  999.0,   -0.1,  999.0,  999.0,  999.0,  999.0,    0.0,   -0.0,    0.1,    0.3,    0.1,  999.0,  999.0,  999.0,  999.0,  999.0,  999.0,  999.0,  999.0,  999.0,  999.0,  999.0,  999.0,    0.1,  999.0,  999.0,  999.0,  999.0,  999.0,   -0.1,  999.0,    0.1,  999.0,  999.0,  999.0,  999.0,    0.0,  999.0,  999.0,  999.0,  999.0,  999.0,  999.0,  999.0
2000/12/06 23:10,    0.2,    0.0,    0.2,    0.2,    0.0,   -0.0,    0.0,   -0.0,   -0.0,   -0.7,    0.1,    0.2,    0.0,  999.0,    0.0,   -0.0,  999.0,    0.1,  999.0,  999.0,    0.1,   -0.0,    0.2,  999.0,   -0.2,   -0.5,  999.0,  999.0,  999.0,  999.0,  999.0,  999.0,  999.0,  999.0,  999.0,  999.0,  999.0,  999.0,  999.0,  999.0,  999.0,  999.0,  999.0,  999.0,  999.0,  999.0,  999.0,  999.0,  999.0,  999.0,  999.0,    0.0,  999.0,  999.0,  999.0,  999.0,  999.0,  999.0
2000/12/06 23:20,    0.0,    0.1,    0.3,   -0.1,   -0.0,   -0.0,    0.2,    0.1,    0.1,    0.1,   -0.0,    0.0,    0.0,   -0.2,    0.1,   -0.1,  999.0,  999.0,  999.0,  999.0,  999.0,  999.0,  999.0,  999.0,  999.0,  999.0,  999.0,  999.0,  999.0,  999.0,  999.0,  999.0,  999.0,  999.0,  999.0,  999.0,  999.0,   -5.6,  999.0,  999.0,   -5.6,  999.0,  999.0,   -5.5,   -5.6,   -5.5,   -5.6,   -5.5,  999.0,   -5.5,   -5.4,   -5.6,   -5.6,   -5.6,   -5.4,   -5.5,   -5.5,  999.0
2000/12/06 23:30,   -0.0,    0.0,    0.1,   -0.2,   -0.0,   -0.0,    0.0,   -0.1,    0.1,   -0.3,   -0.2,    0.0,   -0.1,   -0.2,   -0.1,   -0.2,    0.1,  999.0,   -0.2,  999.0,    0.0,  999.0,  999.0,    0.1,    0.2,  999.0,  999.0,  999.0,  999.0,  999.0,  999.0,  999.0,  999.0,  999.0,  999.0,  999.0,  999.0,  999.0,  999.0,  999.0,  999.0,   -5.4,   -4.8,   -5.4,  999.0,   -5.5,  999.0,   -5.5,   -5.5,   -5.4,   -5.5,   -5.4,   -5.4,   -5.5,   -5.4,   -5.4,   -5.5,   -5.4
2000/12/06 23:40,    0.1,    0.2,    0.2,    0.2,    0.0,    0.0,    0.1,   -0.0,    0.1,    0.0,    0.0,    0.0,   -0.0,    0.0,    0.0,    0.1,    0.1,   -0.3,   -0.5,   -0.8,  999.0,  999.0,  999.0,  999.0,  999.0,  999.0,  999.0,  999.0,  999.0,  999.0,  999.0,  999.0,  999.0,  999.0,  999.0,   -5.5,  999.0,   -5.4,  999.0,   -5.6,  999.0,   -5.5,   -5.6,  999.0,   -5.6,   -5.5,   -5.6,  999.0,   -5.5,  999.0,   -5.5,   -5.5,   -5.3,   -5.5,   -5.5,   -5.6,   -5.5,   -5.4
2000/12/06 23:50,   -0.1,   -0.0,    0.1,    0.1,   -0.0,    0.1,    0.2,    0.1,    0.2,    0.0,    0.0,    0.0,   -0.0,   -0.0,    0.0,    0.0,   -0.2,   -0.3,  999.0,  999.0,  999.0,  999.0,  999.0,  999.0,  999.0,  999.0,  999.0,  999.0,  999.0,  999.0,  999.0,  999.0,   -5.4,  999.0,  999.0,  999.0,   -5.5,  999.0,   -5.4,   -5.5,   -5.4,   -5.5,   -5.5,   -5.5,   -5.5,   -5.6,   -5.5,   -5.5,   -5.5,  999.0,   -5.4,   -5.5,   -5.4,   -5.5,   -5.4,   -5.4,   -5.4,   -5.6
